Time,TemperatureF,DewpointF,PressureIn,WindDirection,WindDirectionDegrees,WindSpeedMPH,WindSpeedGustMPH,Humidity,HourlyPrecipIn,Conditions,Clouds,dailyrainin,SolarRadiationWatts/m^2,SoftwareType,DateUTC
2013-03-17 00:03:00,11.4,0.2,30.33,WNW,294,0.0,0.0,60,0.00,,,0.00,0,Wunderground v.1.15,2013-03-17 05:03:00,
2013-03-17 00:04:00,11.3,-0.3,30.33,WNW,294,0.0,0.0,59,0.00,,,0.00,0,Wunderground v.1.15,2013-03-17 05:04:00,
2013-03-17 00:05:00,11.4,-0.2,30.33,WNW,294,0.0,0.0,59,0.00,,,0.00,0,Wunderground v.1.15,2013-03-17 05:05:00,
2013-03-17 00:06:00,11.3,-0.3,30.34,WNW,294,0.0,0.0,59,0.00,,,0.00,0,Wunderground v.1.15,2013-03-17 05:06:00,
2013-03-17 00:10:00,11.3,-0.3,30.33,WNW,294,0.0,0.0,59,0.00,,,0.00,0,Wunderground v.1.15,2013-03-17 05:10:00,
2013-03-17 00:12:00,11.2,0.0,30.34,WNW,294,0.0,0.0,60,0.00,,,0.00,0,Wunderground v.1.15,2013-03-17 05:12:00,
2013-03-17 00:13:00,11.2,0.0,30.34,WNW,294,0.0,0.0,60,0.00,,,0.00,0,Wunderground v.1.15,2013-03-17 05:13:00,
2013-03-17 00:14:00,11.2,0.0,30.34,WNW,294,0.0,0.0,60,0.00,,,0.00,0,Wunderground v.1.15,2013-03-17 05:14:00,
2013-03-17 00:18:00,11.0,-0.2,30.34,WNW,294,1.0,1.0,60,0.00,,,0.00,0,Wunderground v.1.15,2013-03-17 05:18:00,
2013-03-17 00:19:00,11.0,-0.2,30.34,WNW,295,3.0,3.0,60,0.00,,,0.00,0,Wunderground v.1.15,2013-03-17 05:19:00,
2013-03-17 00:20:00,11.1,-0.1,30.34,WNW,294,3.0,3.0,60,0.00,,,0.00,0,Wunderground v.1.15,2013-03-17 05:20:00,
2013-03-17 00:24:00,11.0,-0.2,30.34,WNW,294,3.0,4.0,60,0.00,,,0.00,0,Wunderground v.1.15,2013-03-17 05:24:00,
2013-03-17 00:28:00,10.9,-0.3,30.34,WNW,294,4.0,4.0,60,0.00,,,0.00,0,Wunderground v.1.15,2013-03-17 05:28:00,
2013-03-17 00:29:00,10.9,-0.3,30.34,WNW,294,3.0,4.0,60,0.00,,,0.00,0,Wunderground v.1.15,2013-03-17 05:29:00,
2013-03-17 00:30:00,10.9,-0.3,30.34,WNW,294,3.0,3.0,60,0.00,,,0.00,0,Wunderground v.1.15,2013-03-17 05:30:00,
2013-03-17 00:31:00,10.9,-0.3,30.34,WNW,294,5.0,5.0,60,0.00,,,0.00,0,Wunderground v.1.15,2013-03-17 05:31:00,
2013-03-17 00:35:00,10.9,-0.3,30.34,WNW,294,1.0,5.0,60,0.00,,,0.00,0,Wunderground v.1.15,2013-03-17 05:35:00,
2013-03-17 00:41:00,10.9,-0.6,30.34,WNW,301,0.0,2.0,59,0.00,,,0.00,0,Wunderground v.1.15,2013-03-17 05:41:00,
2013-03-17 00:42:00,10.9,-0.6,30.34,WNW,301,0.0,2.0,59,0.00,,,0.00,0,Wunderground v.1.15,2013-03-17 05:42:00,
2013-03-17 00:43:00,10.9,-0.6,30.34,WNW,301,0.0,2.0,59,0.00,,,0.00,0,Wunderground v.1.15,2013-03-17 05:43:00,
2013-03-17 00:44:00,10.9,-0.6,30.35,WNW,301,0.0,2.0,59,0.00,,,0.00,0,Wunderground v.1.15,2013-03-17 05:44:00,
2013-03-17 00:48:00,10.8,-1.1,30.34,WNW,301,0.0,2.0,58,0.00,,,0.00,0,Wunderground v.1.15,2013-03-17 05:48:00,
2013-03-17 00:49:00,10.8,-1.1,30.35,WNW,301,0.0,2.0,58,0.00,,,0.00,0,Wunderground v.1.15,2013-03-17 05:49:00,
2013-03-17 00:52:00,10.7,-1.2,30.34,WNW,301,1.0,1.0,58,0.00,,,0.00,0,Wunderground v.1.15,2013-03-17 05:52:00,
2013-03-17 00:53:00,10.7,-0.8,30.35,WNW,301,4.0,4.0,59,0.00,,,0.00,0,Wunderground v.1.15,2013-03-17 05:53:00,
2013-03-17 00:54:00,10.7,-1.2,30.35,WNW,301,2.0,4.0,58,0.00,,,0.00,0,Wunderground v.1.15,2013-03-17 05:54:00,
2013-03-17 00:55:00,10.8,-1.1,30.35,WNW,301,2.0,4.0,58,0.00,,,0.00,0,Wunderground v.1.15,2013-03-17 05:55:00,
2013-03-17 00:59:00,10.7,-1.2,30.35,WNW,301,3.0,4.0,58,0.00,,,0.00,0,Wunderground v.1.15,2013-03-17 05:59:00,
2013-03-17 01:00:00,10.6,-1.3,30.34,WNW,302,7.0,7.0,58,0.00,,,0.00,0,Wunderground v.1.15,2013-03-17 06:00:00,
2013-03-17 01:01:00,10.7,-1.2,30.35,WNW,303,2.0,7.0,58,0.00,,,0.00,0,Wunderground v.1.15,2013-03-17 06:01:00,
2013-03-17 01:04:00,10.5,-1.8,30.34,WNW,303,2.0,7.0,57,0.00,,,0.00,0,Wunderground v.1.15,2013-03-17 06:04:00,
2013-03-17 01:05:00,10.6,-1.7,30.34,WNW,303,2.0,7.0,57,0.00,,,0.00,0,Wunderground v.1.15,2013-03-17 06:05:00,
2013-03-17 01:08:00,10.5,-1.8,30.34,WNW,303,1.0,7.0,57,0.00,,,0.00,0,Wunderground v.1.15,2013-03-17 06:08:00,
2013-03-17 01:10:00,10.4,-1.8,30.35,WNW,303,0.0,0.0,57,0.00,,,0.00,0,Wunderground v.1.15,2013-03-17 06:10:00,
2013-03-17 01:13:00,10.3,-1.9,30.34,WNW,303,0.0,2.0,57,0.00,,,0.00,0,Wunderground v.1.15,2013-03-17 06:13:00,
2013-03-17 01:15:00,10.3,-1.9,30.34,WNW,303,0.0,2.0,57,0.00,,,0.00,0,Wunderground v.1.15,2013-03-17 06:15:00,
2013-03-17 01:18:00,10.2,-2.0,30.34,WNW,303,0.0,2.0,57,0.00,,,0.00,0,Wunderground v.1.15,2013-03-17 06:18:00,
2013-03-17 01:21:00,10.2,-2.0,30.34,WNW,303,0.0,0.0,57,0.00,,,0.00,0,Wunderground v.1.15,2013-03-17 06:21:00,
2013-03-17 01:23:00,10.2,-2.0,30.34,WNW,303,0.0,0.0,57,0.00,,,0.00,0,Wunderground v.1.15,2013-03-17 06:23:00,
2013-03-17 01:26:00,10.1,-2.1,30.34,WNW,303,0.0,0.0,57,0.00,,,0.00,0,Wunderground v.1.15,2013-03-17 06:26:00,
2013-03-17 01:27:00,10.1,-2.1,30.34,WNW,303,0.0,0.0,57,0.00,,,0.00,0,Wunderground v.1.15,2013-03-17 06:27:00,
2013-03-17 01:29:00,10.0,-2.2,30.34,WNW,303,0.0,0.0,57,0.00,,,0.00,0,Wunderground v.1.15,2013-03-17 06:29:00,
2013-03-17 01:30:00,10.1,-2.1,30.34,WNW,303,0.0,0.0,57,0.00,,,0.00,0,Wunderground v.1.15,2013-03-17 06:30:00,
2013-03-17 01:33:00,10.0,-2.2,30.34,WNW,303,0.0,2.0,57,0.00,,,0.00,0,Wunderground v.1.15,2013-03-17 06:33:00,
2013-03-17 01:38:00,10.0,-2.2,30.34,WNW,303,0.0,2.0,57,0.00,,,0.00,0,Wunderground v.1.15,2013-03-17 06:38:00,
2013-03-17 01:39:00,10.0,-2.2,30.34,WNW,303,0.0,2.0,57,0.00,,,0.00,0,Wunderground v.1.15,2013-03-17 06:39:00,
2013-03-17 01:42:00,9.9,-2.3,30.34,WNW,303,0.0,0.0,57,0.00,,,0.00,0,Wunderground v.1.15,2013-03-17 06:42:00,
2013-03-17 01:44:00,9.9,-2.3,30.34,NW,304,0.0,0.0,57,0.00,,,0.00,0,Wunderground v.1.15,2013-03-17 06:44:00,
2013-03-17 01:45:00,9.9,-2.3,30.34,NW,304,0.0,0.0,57,0.00,,,0.00,0,Wunderground v.1.15,2013-03-17 06:45:00,
2013-03-17 01:48:00,9.9,-2.3,30.34,NW,304,0.0,0.0,57,0.00,,,0.00,0,Wunderground v.1.15,2013-03-17 06:48:00,
2013-03-17 01:49:00,9.8,-2.4,30.34,NW,304,0.0,0.0,57,0.00,,,0.00,0,Wunderground v.1.15,2013-03-17 06:49:00,
2013-03-17 01:53:00,9.8,-2.4,30.35,NW,304,0.0,0.0,57,0.00,,,0.00,0,Wunderground v.1.15,2013-03-17 06:53:00,
2013-03-17 01:54:00,9.7,-2.5,30.35,NW,304,1.0,1.0,57,0.00,,,0.00,0,Wunderground v.1.15,2013-03-17 06:54:00,
2013-03-17 01:56:00,9.7,-2.5,30.35,NW,304,0.0,1.0,57,0.00,,,0.00,0,Wunderground v.1.15,2013-03-17 06:56:00,
2013-03-17 01:58:00,9.7,-2.5,30.35,NW,304,0.0,1.0,57,0.00,,,0.00,0,Wunderground v.1.15,2013-03-17 06:58:00,
2013-03-17 02:00:00,9.7,-2.5,30.35,NW,304,0.0,0.0,57,0.00,,,0.00,0,Wunderground v.1.15,2013-03-17 07:00:00,
2013-03-17 02:01:00,9.7,-2.5,30.35,NW,304,0.0,0.0,57,0.00,,,0.00,0,Wunderground v.1.15,2013-03-17 07:01:00,
2013-03-17 02:03:00,9.7,-2.5,30.35,NW,304,0.0,0.0,57,0.00,,,0.00,0,Wunderground v.1.15,2013-03-17 07:03:00,
2013-03-17 02:05:00,9.6,-2.6,30.35,NW,304,0.0,0.0,57,0.00,,,0.00,0,Wunderground v.1.15,2013-03-17 07:05:00,
2013-03-17 02:06:00,9.6,-2.6,30.35,NW,304,0.0,0.0,57,0.00,,,0.00,0,Wunderground v.1.15,2013-03-17 07:06:00,
2013-03-17 02:08:00,9.6,-2.6,30.35,NW,304,0.0,0.0,57,0.00,,,0.00,0,Wunderground v.1.15,2013-03-17 07:08:00,
2013-03-17 02:10:00,9.5,-2.7,30.35,NW,304,0.0,1.0,57,0.00,,,0.00,0,Wunderground v.1.15,2013-03-17 07:10:00,
2013-03-17 02:11:00,9.5,-2.7,30.35,NW,304,0.0,1.0,57,0.00,,,0.00,0,Wunderground v.1.15,2013-03-17 07:11:00,
2013-03-17 02:12:00,9.5,-2.7,30.35,NW,304,0.0,1.0,57,0.00,,,0.00,0,Wunderground v.1.15,2013-03-17 07:12:00,
2013-03-17 02:13:00,9.6,-2.6,30.36,NW,304,0.0,1.0,57,0.00,,,0.00,0,Wunderground v.1.15,2013-03-17 07:13:00,
2013-03-17 02:15:00,9.6,-2.6,30.35,NW,304,4.0,7.0,57,0.00,,,0.00,0,Wunderground v.1.15,2013-03-17 07:15:00,
2013-03-17 02:17:00,9.6,-2.6,30.36,NW,304,0.0,7.0,57,0.00,,,0.00,0,Wunderground v.1.15,2013-03-17 07:17:00,
2013-03-17 02:18:00,9.5,-2.7,30.36,NW,304,0.0,7.0,57,0.00,,,0.00,0,Wunderground v.1.15,2013-03-17 07:18:00,
2013-03-17 02:21:00,9.5,-2.7,30.35,NW,304,0.0,1.0,57,0.00,,,0.00,0,Wunderground v.1.15,2013-03-17 07:21:00,
2013-03-17 02:22:00,9.6,-2.6,30.35,NW,304,0.0,1.0,57,0.00,,,0.00,0,Wunderground v.1.15,2013-03-17 07:22:00,
2013-03-17 02:23:00,9.5,-2.7,30.36,NW,304,0.0,1.0,57,0.00,,,0.00,0,Wunderground v.1.15,2013-03-17 07:23:00,
2013-03-17 02:26:00,9.5,-2.7,30.36,NW,304,0.0,1.0,57,0.00,,,0.00,0,Wunderground v.1.15,2013-03-17 07:26:00,
2013-03-17 02:27:00,9.5,-2.7,30.35,NW,304,0.0,1.0,57,0.00,,,0.00,0,Wunderground v.1.15,2013-03-17 07:27:00,
2013-03-17 02:28:00,9.5,-2.7,30.36,NW,304,0.0,1.0,57,0.00,,,0.00,0,Wunderground v.1.15,2013-03-17 07:28:00,
2013-03-17 02:29:00,9.5,-2.7,30.36,NW,304,0.0,1.0,57,0.00,,,0.00,0,Wunderground v.1.15,2013-03-17 07:29:00,
2013-03-17 02:31:00,9.3,-2.9,30.36,NW,304,0.0,0.0,57,0.00,,,0.00,0,Wunderground v.1.15,2013-03-17 07:31:00,
2013-03-17 02:32:00,9.4,-2.8,30.36,NW,304,0.0,0.0,57,0.00,,,0.00,0,Wunderground v.1.15,2013-03-17 07:32:00,
2013-03-17 02:33:00,9.3,-2.9,30.36,NW,304,0.0,0.0,57,0.00,,,0.00,0,Wunderground v.1.15,2013-03-17 07:33:00,
2013-03-17 02:34:00,9.3,-2.9,30.35,NW,304,0.0,0.0,57,0.00,,,0.00,0,Wunderground v.1.15,2013-03-17 07:34:00,
2013-03-17 02:37:00,9.3,-2.9,30.35,NW,304,0.0,0.0,57,0.00,,,0.00,0,Wunderground v.1.15,2013-03-17 07:37:00,
2013-03-17 02:38:00,9.3,-2.9,30.35,NW,304,0.0,0.0,57,0.00,,,0.00,0,Wunderground v.1.15,2013-03-17 07:38:00,
2013-03-17 02:39:00,9.3,-2.9,30.35,NW,304,0.0,0.0,57,0.00,,,0.00,0,Wunderground v.1.15,2013-03-17 07:39:00,
2013-03-17 02:42:00,9.2,-3.0,30.35,NW,304,0.0,1.0,57,0.00,,,0.00,0,Wunderground v.1.15,2013-03-17 07:42:00,
2013-03-17 02:43:00,9.2,-3.0,30.35,NW,304,0.0,1.0,57,0.00,,,0.00,0,Wunderground v.1.15,2013-03-17 07:43:00,
2013-03-17 02:44:00,9.2,-3.0,30.35,NW,304,0.0,1.0,57,0.00,,,0.00,0,Wunderground v.1.15,2013-03-17 07:44:00,
2013-03-17 02:47:00,9.1,-3.1,30.35,NW,304,0.0,1.0,57,0.00,,,0.00,0,Wunderground v.1.15,2013-03-17 07:47:00,
2013-03-17 02:49:00,9.1,-3.1,30.35,NW,304,0.0,1.0,57,0.00,,,0.00,0,Wunderground v.1.15,2013-03-17 07:49:00,
2013-03-17 02:52:00,9.0,-3.2,30.35,NW,304,0.0,0.0,57,0.00,,,0.00,0,Wunderground v.1.15,2013-03-17 07:52:00,
2013-03-17 02:54:00,9.0,-3.2,30.35,NW,304,0.0,0.0,57,0.00,,,0.00,0,Wunderground v.1.15,2013-03-17 07:54:00,
2013-03-17 02:55:00,9.0,-3.2,30.35,NW,304,0.0,0.0,57,0.00,,,0.00,0,Wunderground v.1.15,2013-03-17 07:55:00,
2013-03-17 02:58:00,9.0,-3.2,30.35,NW,304,0.0,0.0,57,0.00,,,0.00,0,Wunderground v.1.15,2013-03-17 07:58:00,
2013-03-17 02:59:00,9.0,-2.8,30.35,NW,304,0.0,0.0,58,0.00,,,0.00,0,Wunderground v.1.15,2013-03-17 07:59:00,
2013-03-17 03:00:00,9.0,-3.2,30.35,NW,304,0.0,0.0,57,0.00,,,0.00,0,Wunderground v.1.15,2013-03-17 08:00:00,
2013-03-17 03:03:00,8.9,-2.9,30.34,NW,304,0.0,0.0,58,0.00,,,0.00,0,Wunderground v.1.15,2013-03-17 08:03:00,
2013-03-17 03:04:00,8.8,-3.0,30.34,NW,304,0.0,0.0,58,0.00,,,0.00,0,Wunderground v.1.15,2013-03-17 08:04:00,
2013-03-17 03:05:00,8.8,-3.4,30.34,NW,304,0.0,0.0,57,0.00,,,0.00,0,Wunderground v.1.15,2013-03-17 08:05:00,
2013-03-17 03:08:00,8.7,-3.1,30.34,NW,304,0.0,0.0,58,0.00,,,0.00,0,Wunderground v.1.15,2013-03-17 08:08:00,
2013-03-17 03:09:00,8.6,-3.5,30.34,NW,304,0.0,0.0,57,0.00,,,0.00,0,Wunderground v.1.15,2013-03-17 08:09:00,
2013-03-17 03:10:00,8.7,-3.4,30.34,NW,304,1.0,1.0,57,0.00,,,0.00,0,Wunderground v.1.15,2013-03-17 08:10:00,
2013-03-17 03:11:00,8.7,-3.1,30.34,NW,304,0.0,2.0,58,0.00,,,0.00,0,Wunderground v.1.15,2013-03-17 08:11:00,
2013-03-17 03:13:00,8.8,-3.4,30.34,NNW,331,6.0,8.0,57,0.00,,,0.00,0,Wunderground v.1.15,2013-03-17 08:13:00,
2013-03-17 03:14:00,8.8,-3.4,30.34,NNW,332,0.0,8.0,57,0.00,,,0.00,0,Wunderground v.1.15,2013-03-17 08:14:00,
2013-03-17 03:16:00,8.9,-3.3,30.34,NNW,332,0.0,8.0,57,0.00,,,0.00,0,Wunderground v.1.15,2013-03-17 08:16:00,
2013-03-17 03:18:00,9.0,-3.2,30.34,NNW,332,2.0,8.0,57,0.00,,,0.00,0,Wunderground v.1.15,2013-03-17 08:18:00,
2013-03-17 03:19:00,9.1,-3.1,30.34,NNW,332,0.0,8.0,57,0.00,,,0.00,0,Wunderground v.1.15,2013-03-17 08:19:00,
2013-03-17 03:21:00,9.1,-3.1,30.34,NNW,332,0.0,0.0,57,0.00,,,0.00,0,Wunderground v.1.15,2013-03-17 08:21:00,
2013-03-17 03:23:00,9.0,-3.2,30.34,NNW,332,0.0,0.0,57,0.00,,,0.00,0,Wunderground v.1.15,2013-03-17 08:23:00,
2013-03-17 03:25:00,9.1,-3.1,30.34,NNW,332,2.0,3.0,57,0.00,,,0.00,0,Wunderground v.1.15,2013-03-17 08:25:00,
2013-03-17 03:26:00,9.1,-3.4,30.34,NNW,332,4.0,4.0,56,0.00,,,0.00,0,Wunderground v.1.15,2013-03-17 08:26:00,
2013-03-17 03:27:00,9.2,-3.3,30.34,NNW,335,0.0,4.0,56,0.00,,,0.00,0,Wunderground v.1.15,2013-03-17 08:27:00,
2013-03-17 03:28:00,9.1,-3.4,30.34,NNW,336,0.0,5.0,56,0.00,,,0.00,0,Wunderground v.1.15,2013-03-17 08:28:00,
2013-03-17 03:30:00,9.2,-3.3,30.34,NNW,336,2.0,2.0,56,0.00,,,0.00,0,Wunderground v.1.15,2013-03-17 08:30:00,
2013-03-17 03:31:00,9.2,-3.3,30.34,NNW,336,2.0,4.0,56,0.00,,,0.00,0,Wunderground v.1.15,2013-03-17 08:31:00,
2013-03-17 03:33:00,9.2,-3.3,30.34,NNW,336,0.0,4.0,56,0.00,,,0.00,0,Wunderground v.1.15,2013-03-17 08:33:00,
2013-03-17 03:35:00,9.2,-3.3,30.34,NNW,336,0.0,4.0,56,0.00,,,0.00,0,Wunderground v.1.15,2013-03-17 08:35:00,
2013-03-17 03:36:00,9.1,-3.8,30.34,NNW,336,0.0,4.0,55,0.00,,,0.00,0,Wunderground v.1.15,2013-03-17 08:36:00,
2013-03-17 03:38:00,9.1,-3.8,30.34,NNW,336,0.0,4.0,55,0.00,,,0.00,0,Wunderground v.1.15,2013-03-17 08:38:00,
2013-03-17 03:40:00,9.0,-3.9,30.34,NNW,336,0.0,0.0,55,0.00,,,0.00,0,Wunderground v.1.15,2013-03-17 08:40:00,
2013-03-17 03:42:00,9.1,-3.8,30.34,NNW,336,0.0,0.0,55,0.00,,,0.00,0,Wunderground v.1.15,2013-03-17 08:42:00,
2013-03-17 03:43:00,9.0,-3.9,30.34,NNW,336,0.0,0.0,55,0.00,,,0.00,0,Wunderground v.1.15,2013-03-17 08:43:00,
2013-03-17 03:44:00,9.1,-3.8,30.34,NNW,336,0.0,0.0,55,0.00,,,0.00,0,Wunderground v.1.15,2013-03-17 08:44:00,
2013-03-17 03:45:00,9.1,-3.8,30.34,NNW,336,0.0,0.0,55,0.00,,,0.00,0,Wunderground v.1.15,2013-03-17 08:45:00,
2013-03-17 03:47:00,9.0,-3.9,30.34,NNW,336,1.0,3.0,55,0.00,,,0.00,0,Wunderground v.1.15,2013-03-17 08:47:00,
2013-03-17 03:48:00,9.0,-3.9,30.34,NNW,336,1.0,5.0,55,0.00,,,0.00,0,Wunderground v.1.15,2013-03-17 08:48:00,
2013-03-17 03:49:00,9.0,-3.9,30.34,NNW,336,0.0,5.0,55,0.00,,,0.00,0,Wunderground v.1.15,2013-03-17 08:49:00,
2013-03-17 03:50:00,9.0,-3.9,30.33,NNW,336,2.0,4.0,55,0.00,,,0.00,0,Wunderground v.1.15,2013-03-17 08:50:00,
2013-03-17 03:52:00,9.0,-3.9,30.33,NNW,340,0.0,6.0,55,0.00,,,0.00,0,Wunderground v.1.15,2013-03-17 08:52:00,
2013-03-17 03:53:00,9.0,-3.9,30.33,NNW,348,6.0,6.0,55,0.00,,,0.00,0,Wunderground v.1.15,2013-03-17 08:53:00,
2013-03-17 03:54:00,9.0,-3.9,30.33,North,349,4.0,7.0,55,0.00,,,0.00,0,Wunderground v.1.15,2013-03-17 08:54:00,
2013-03-17 03:56:00,9.0,-4.3,30.33,North,352,0.0,7.0,54,0.00,,,0.00,0,Wunderground v.1.15,2013-03-17 08:56:00,
2013-03-17 03:58:00,9.0,-4.3,30.33,North,352,0.0,7.0,54,0.00,,,0.00,0,Wunderground v.1.15,2013-03-17 08:58:00,
2013-03-17 03:59:00,9.0,-4.3,30.32,North,352,1.0,7.0,54,0.00,,,0.00,0,Wunderground v.1.15,2013-03-17 08:59:00,
2013-03-17 04:02:00,8.8,-4.5,30.33,North,352,1.0,4.0,54,0.00,,,0.00,0,Wunderground v.1.15,2013-03-17 09:02:00,
2013-03-17 04:03:00,8.9,-4.4,30.32,North,352,4.0,4.0,54,0.00,,,0.00,0,Wunderground v.1.15,2013-03-17 09:03:00,
2013-03-17 04:04:00,8.8,-4.5,30.33,North,352,2.0,5.0,54,0.00,,,0.00,0,Wunderground v.1.15,2013-03-17 09:04:00,
2013-03-17 04:07:00,9.0,-4.3,30.32,North,352,1.0,5.0,54,0.00,,,0.00,0,Wunderground v.1.15,2013-03-17 09:07:00,
2013-03-17 04:08:00,8.9,-4.4,30.33,North,352,0.0,5.0,54,0.00,,,0.00,0,Wunderground v.1.15,2013-03-17 09:08:00,
2013-03-17 04:09:00,8.8,-4.5,30.33,North,352,0.0,5.0,54,0.00,,,0.00,0,Wunderground v.1.15,2013-03-17 09:09:00,
2013-03-17 04:13:00,8.7,-4.6,30.33,North,354,2.0,5.0,54,0.00,,,0.00,0,Wunderground v.1.15,2013-03-17 09:13:00,
2013-03-17 04:14:00,8.8,-4.5,30.33,North,354,3.0,5.0,54,0.00,,,0.00,0,Wunderground v.1.15,2013-03-17 09:14:00,
2013-03-17 04:18:00,8.7,-4.6,30.33,North,0,5.0,6.0,54,0.00,,,0.00,0,Wunderground v.1.15,2013-03-17 09:18:00,
2013-03-17 04:19:00,8.7,-4.6,30.33,North,0,3.0,6.0,54,0.00,,,0.00,0,Wunderground v.1.15,2013-03-17 09:19:00,
2013-03-17 04:20:00,8.8,-4.5,30.33,North,0,3.0,3.0,54,0.00,,,0.00,0,Wunderground v.1.15,2013-03-17 09:20:00,
2013-03-17 04:23:00,8.7,-4.6,30.33,North,0,3.0,7.0,54,0.00,,,0.00,0,Wunderground v.1.15,2013-03-17 09:23:00,
2013-03-17 04:24:00,8.6,-4.7,30.32,North,0,5.0,7.0,54,0.00,,,0.00,0,Wunderground v.1.15,2013-03-17 09:24:00,
2013-03-17 04:25:00,8.6,-4.7,30.32,North,0,2.0,7.0,54,0.00,,,0.00,0,Wunderground v.1.15,2013-03-17 09:25:00,
2013-03-17 04:29:00,8.6,-4.7,30.32,North,2,0.0,7.0,54,0.00,,,0.00,0,Wunderground v.1.15,2013-03-17 09:29:00,
2013-03-17 04:30:00,8.6,-4.7,30.32,North,2,0.0,7.0,54,0.00,,,0.00,0,Wunderground v.1.15,2013-03-17 09:30:00,
2013-03-17 04:34:00,8.5,-4.8,30.32,North,2,1.0,6.0,54,0.00,,,0.00,0,Wunderground v.1.15,2013-03-17 09:34:00,
2013-03-17 04:35:00,8.5,-4.8,30.32,North,2,0.0,6.0,54,0.00,,,0.00,0,Wunderground v.1.15,2013-03-17 09:35:00,
2013-03-17 04:39:00,8.4,-4.9,30.33,North,2,5.0,6.0,54,0.00,,,0.00,0,Wunderground v.1.15,2013-03-17 09:39:00,
2013-03-17 04:40:00,8.4,-4.9,30.32,North,2,2.0,6.0,54,0.00,,,0.00,0,Wunderground v.1.15,2013-03-17 09:40:00,
2013-03-17 04:45:00,8.3,-5.0,30.32,North,4,5.0,6.0,54,0.00,,,0.00,0,Wunderground v.1.15,2013-03-17 09:45:00,
2013-03-17 04:46:00,8.4,-4.9,30.32,North,5,2.0,6.0,54,0.00,,,0.00,0,Wunderground v.1.15,2013-03-17 09:46:00,
2013-03-17 04:50:00,8.2,-5.0,30.32,North,5,0.0,0.0,54,0.00,,,0.00,0,Wunderground v.1.15,2013-03-17 09:50:00,
2013-03-17 04:51:00,8.2,-5.0,30.32,North,5,0.0,1.0,54,0.00,,,0.00,0,Wunderground v.1.15,2013-03-17 09:51:00,
2013-03-17 04:55:00,8.1,-5.1,30.32,North,5,0.0,3.0,54,0.00,,,0.00,0,Wunderground v.1.15,2013-03-17 09:55:00,
2013-03-17 04:57:00,8.0,-5.2,30.32,North,5,0.0,3.0,54,0.00,,,0.00,0,Wunderground v.1.15,2013-03-17 09:57:00,
2013-03-17 05:00:00,8.0,-5.2,30.32,North,5,0.0,0.0,54,0.00,,,0.00,0,Wunderground v.1.15,2013-03-17 10:00:00,
2013-03-17 05:01:00,8.0,-4.9,30.32,North,5,0.0,0.0,55,0.00,,,0.00,0,Wunderground v.1.15,2013-03-17 10:01:00,
2013-03-17 05:02:00,8.0,-5.2,30.32,North,5,0.0,0.0,54,0.00,,,0.00,0,Wunderground v.1.15,2013-03-17 10:02:00,
2013-03-17 05:05:00,8.0,-5.2,30.32,North,5,0.0,0.0,54,0.00,,,0.00,0,Wunderground v.1.15,2013-03-17 10:05:00,
2013-03-17 05:06:00,8.0,-4.9,30.32,North,5,0.0,2.0,55,0.00,,,0.00,0,Wunderground v.1.15,2013-03-17 10:06:00,
2013-03-17 05:07:00,7.9,-5.3,30.32,North,5,0.0,2.0,54,0.00,,,0.00,0,Wunderground v.1.15,2013-03-17 10:07:00,
2013-03-17 05:10:00,7.8,-5.0,30.32,North,6,0.0,0.0,55,0.00,,,0.00,0,Wunderground v.1.15,2013-03-17 10:10:00,
2013-03-17 05:12:00,7.8,-5.0,30.32,North,6,0.0,0.0,55,0.00,,,0.00,0,Wunderground v.1.15,2013-03-17 10:12:00,
2013-03-17 05:13:00,7.8,-5.0,30.33,North,6,0.0,0.0,55,0.00,,,0.00,0,Wunderground v.1.15,2013-03-17 10:13:00,
2013-03-17 05:15:00,7.7,-5.1,30.32,North,6,0.0,3.0,55,0.00,,,0.00,0,Wunderground v.1.15,2013-03-17 10:15:00,
2013-03-17 05:17:00,7.7,-5.1,30.32,North,6,0.0,3.0,55,0.00,,,0.00,0,Wunderground v.1.15,2013-03-17 10:17:00,
2013-03-17 05:18:00,7.8,-5.0,30.32,North,6,0.0,3.0,55,0.00,,,0.00,0,Wunderground v.1.15,2013-03-17 10:18:00,
2013-03-17 05:20:00,7.8,-5.0,30.32,North,9,0.0,0.0,55,0.00,,,0.00,0,Wunderground v.1.15,2013-03-17 10:20:00,
2013-03-17 05:22:00,7.7,-5.1,30.33,North,9,0.0,0.0,55,0.00,,,0.00,0,Wunderground v.1.15,2013-03-17 10:22:00,
2013-03-17 05:23:00,7.7,-5.1,30.32,North,9,0.0,2.0,55,0.00,,,0.00,0,Wunderground v.1.15,2013-03-17 10:23:00,
2013-03-17 05:25:00,7.8,-5.0,30.32,North,9,0.0,2.0,55,0.00,,,0.00,0,Wunderground v.1.15,2013-03-17 10:25:00,
2013-03-17 05:27:00,7.7,-5.1,30.33,North,9,0.0,2.0,55,0.00,,,0.00,0,Wunderground v.1.15,2013-03-17 10:27:00,
2013-03-17 05:28:00,7.7,-5.1,30.33,North,9,0.0,2.0,55,0.00,,,0.00,0,Wunderground v.1.15,2013-03-17 10:28:00,
2013-03-17 05:30:00,7.7,-5.1,30.32,North,9,0.0,0.0,55,0.00,,,0.00,0,Wunderground v.1.15,2013-03-17 10:30:00,
2013-03-17 05:32:00,7.6,-5.2,30.32,North,9,0.0,0.0,55,0.00,,,0.00,0,Wunderground v.1.15,2013-03-17 10:32:00,
2013-03-17 05:33:00,7.6,-5.2,30.32,North,9,0.0,0.0,55,0.00,,,0.00,0,Wunderground v.1.15,2013-03-17 10:33:00,
2013-03-17 05:34:00,7.6,-5.2,30.32,North,9,0.0,0.0,55,0.00,,,0.00,0,Wunderground v.1.15,2013-03-17 10:34:00,
2013-03-17 05:35:00,7.6,-5.2,30.32,North,9,0.0,0.0,55,0.00,,,0.00,0,Wunderground v.1.15,2013-03-17 10:35:00,
2013-03-17 05:37:00,7.6,-5.2,30.32,North,9,0.0,0.0,55,0.00,,,0.00,0,Wunderground v.1.15,2013-03-17 10:37:00,
2013-03-17 05:38:00,7.6,-5.2,30.32,North,9,0.0,0.0,55,0.00,,,0.00,0,Wunderground v.1.15,2013-03-17 10:38:00,
2013-03-17 05:39:00,7.5,-5.3,30.32,North,9,0.0,0.0,55,0.00,,,0.00,0,Wunderground v.1.15,2013-03-17 10:39:00,
2013-03-17 05:40:00,7.4,-5.4,30.32,North,9,0.0,0.0,55,0.00,,,0.00,0,Wunderground v.1.15,2013-03-17 10:40:00,
2013-03-17 05:42:00,7.4,-5.4,30.32,North,9,0.0,1.0,55,0.00,,,0.00,0,Wunderground v.1.15,2013-03-17 10:42:00,
2013-03-17 05:43:00,7.4,-5.4,30.32,North,9,0.0,1.0,55,0.00,,,0.00,0,Wunderground v.1.15,2013-03-17 10:43:00,
2013-03-17 05:44:00,7.4,-5.4,30.33,North,9,0.0,1.0,55,0.00,,,0.00,0,Wunderground v.1.15,2013-03-17 10:44:00,
2013-03-17 05:46:00,7.4,-5.4,30.33,North,9,0.0,1.0,55,0.00,,,0.00,0,Wunderground v.1.15,2013-03-17 10:46:00,
2013-03-17 05:47:00,7.5,-5.3,30.32,North,9,0.0,1.0,55,0.00,,,0.00,0,Wunderground v.1.15,2013-03-17 10:47:00,
2013-03-17 05:48:00,7.5,-5.3,30.33,North,9,0.0,1.0,55,0.00,,,0.00,0,Wunderground v.1.15,2013-03-17 10:48:00,
2013-03-17 05:49:00,7.4,-5.4,30.33,North,9,0.0,1.0,55,0.00,,,0.00,0,Wunderground v.1.15,2013-03-17 10:49:00,
2013-03-17 05:52:00,7.4,-5.4,30.33,North,9,0.0,1.0,55,0.00,,,0.00,0,Wunderground v.1.15,2013-03-17 10:52:00,
2013-03-17 05:54:00,7.4,-5.4,30.32,North,9,0.0,1.0,55,0.00,,,0.00,0,Wunderground v.1.15,2013-03-17 10:54:00,
2013-03-17 05:57:00,7.3,-5.5,30.32,North,9,0.0,1.0,55,0.00,,,0.00,0,Wunderground v.1.15,2013-03-17 10:57:00,
2013-03-17 05:58:00,7.3,-5.5,30.32,North,9,0.0,1.0,55,0.00,,,0.00,0,Wunderground v.1.15,2013-03-17 10:58:00,
2013-03-17 05:59:00,7.2,-5.6,30.32,North,9,0.0,1.0,55,0.00,,,0.00,0,Wunderground v.1.15,2013-03-17 10:59:00,
2013-03-17 06:02:00,7.2,-5.6,30.32,North,9,0.0,0.0,55,0.00,,,0.00,0,Wunderground v.1.15,2013-03-17 11:02:00,
2013-03-17 06:03:00,7.2,-5.6,30.32,North,9,0.0,0.0,55,0.00,,,0.00,0,Wunderground v.1.15,2013-03-17 11:03:00,
2013-03-17 06:04:00,7.2,-5.2,30.33,North,9,0.0,0.0,56,0.00,,,0.00,0,Wunderground v.1.15,2013-03-17 11:04:00,
2013-03-17 06:08:00,7.2,-5.6,30.32,North,9,0.0,0.0,55,0.00,,,0.00,0,Wunderground v.1.15,2013-03-17 11:08:00,
2013-03-17 06:09:00,7.2,-5.2,30.33,North,9,0.0,0.0,56,0.00,,,0.00,0,Wunderground v.1.15,2013-03-17 11:09:00,
2013-03-17 06:13:00,7.2,-5.6,30.32,North,9,0.0,3.0,55,0.00,,,0.00,0,Wunderground v.1.15,2013-03-17 11:13:00,
2013-03-17 06:14:00,7.1,-5.7,30.32,North,9,0.0,3.0,55,0.00,,,0.00,0,Wunderground v.1.15,2013-03-17 11:14:00,
2013-03-17 06:15:00,7.1,-5.7,30.32,North,9,1.0,3.0,55,0.00,,,0.00,0,Wunderground v.1.15,2013-03-17 11:15:00,
2013-03-17 06:18:00,7.1,-5.7,30.32,North,9,0.0,3.0,55,0.00,,,0.00,0,Wunderground v.1.15,2013-03-17 11:18:00,
2013-03-17 06:19:00,7.1,-5.3,30.32,North,9,1.0,3.0,56,0.00,,,0.00,0,Wunderground v.1.15,2013-03-17 11:19:00,
2013-03-17 06:20:00,7.1,-5.3,30.32,North,9,0.0,0.0,56,0.00,,,0.00,0,Wunderground v.1.15,2013-03-17 11:20:00,
2013-03-17 06:23:00,7.1,-5.3,30.32,North,9,0.0,2.0,56,0.00,,,0.00,0,Wunderground v.1.15,2013-03-17 11:23:00,
2013-03-17 06:24:00,7.0,-5.8,30.32,North,9,0.0,2.0,55,0.00,,,0.00,0,Wunderground v.1.15,2013-03-17 11:24:00,
2013-03-17 06:25:00,7.1,-5.3,30.32,North,9,0.0,2.0,56,0.00,,,0.00,0,Wunderground v.1.15,2013-03-17 11:25:00,
2013-03-17 06:28:00,7.0,-5.8,30.32,North,9,0.0,2.0,55,0.00,,,0.00,0,Wunderground v.1.15,2013-03-17 11:28:00,
2013-03-17 06:29:00,7.0,-5.4,30.32,North,9,0.0,2.0,56,0.00,,,0.00,0,Wunderground v.1.15,2013-03-17 11:29:00,
2013-03-17 06:30:00,7.0,-5.8,30.32,North,9,0.0,1.0,55,0.00,,,0.00,0,Wunderground v.1.15,2013-03-17 11:30:00,
2013-03-17 06:33:00,7.0,-5.4,30.32,North,9,0.0,3.0,56,0.00,,,0.00,0,Wunderground v.1.15,2013-03-17 11:33:00,
2013-03-17 06:35:00,7.0,-5.4,30.32,North,9,2.0,5.0,56,0.00,,,0.00,0,Wunderground v.1.15,2013-03-17 11:35:00,
2013-03-17 06:39:00,7.0,-5.4,30.32,North,9,0.0,5.0,56,0.00,,,0.00,0,Wunderground v.1.15,2013-03-17 11:39:00,
2013-03-17 06:40:00,6.9,-5.9,30.32,North,9,0.0,0.0,55,0.00,,,0.00,0,Wunderground v.1.15,2013-03-17 11:40:00,
2013-03-17 06:44:00,6.9,-5.5,30.32,North,9,1.0,2.0,56,0.00,,,0.00,0,Wunderground v.1.15,2013-03-17 11:44:00,
2013-03-17 06:45:00,6.9,-5.5,30.32,North,9,0.0,2.0,56,0.00,,,0.00,0,Wunderground v.1.15,2013-03-17 11:45:00,
2013-03-17 06:49:00,7.0,-5.8,30.33,North,9,0.0,2.0,55,0.00,,,0.00,0,Wunderground v.1.15,2013-03-17 11:49:00,
2013-03-17 06:50:00,6.9,-5.5,30.32,North,9,0.0,1.0,56,0.00,,,0.00,0,Wunderground v.1.15,2013-03-17 11:50:00,
2013-03-17 06:51:00,6.9,-5.5,30.32,North,9,0.0,1.0,56,0.00,,,0.00,0,Wunderground v.1.15,2013-03-17 11:51:00,
2013-03-17 06:54:00,6.9,-5.5,30.32,North,9,0.0,4.0,56,0.00,,,0.00,0,Wunderground v.1.15,2013-03-17 11:54:00,
2013-03-17 06:55:00,6.9,-5.5,30.32,North,9,3.0,5.0,56,0.00,,,0.00,0,Wunderground v.1.15,2013-03-17 11:55:00,
2013-03-17 06:56:00,6.9,-5.5,30.32,North,9,0.0,5.0,56,0.00,,,0.00,0,Wunderground v.1.15,2013-03-17 11:56:00,
2013-03-17 06:59:00,6.9,-5.5,30.32,North,9,3.0,5.0,56,0.00,,,0.00,0,Wunderground v.1.15,2013-03-17 11:59:00,
2013-03-17 07:00:00,7.0,-5.8,30.32,North,9,2.0,3.0,55,0.00,,,0.00,0,Wunderground v.1.15,2013-03-17 12:00:00,
2013-03-17 07:02:00,6.9,-5.5,30.32,North,9,4.0,5.0,56,0.00,,,0.00,0,Wunderground v.1.15,2013-03-17 12:02:00,
2013-03-17 07:04:00,7.0,-5.4,30.31,North,9,2.0,5.0,56,0.00,,,0.00,0,Wunderground v.1.15,2013-03-17 12:04:00,
2013-03-17 07:05:00,6.9,-5.5,30.32,North,9,2.0,5.0,56,0.00,,,0.00,0,Wunderground v.1.15,2013-03-17 12:05:00,
2013-03-17 07:07:00,6.9,-5.9,30.32,North,9,0.0,5.0,55,0.00,,,0.00,0,Wunderground v.1.15,2013-03-17 12:07:00,
2013-03-17 07:09:00,6.9,-5.9,30.31,North,9,2.0,5.0,55,0.00,,,0.00,0,Wunderground v.1.15,2013-03-17 12:09:00,
2013-03-17 07:10:00,6.9,-5.9,30.31,North,9,0.0,1.0,55,0.00,,,0.00,0,Wunderground v.1.15,2013-03-17 12:10:00,
2013-03-17 07:12:00,6.9,-5.5,30.31,North,9,2.0,4.0,56,0.00,,,0.00,0,Wunderground v.1.15,2013-03-17 12:12:00,
2013-03-17 07:14:00,6.9,-5.9,30.31,North,9,2.0,4.0,55,0.00,,,0.00,0,Wunderground v.1.15,2013-03-17 12:14:00,
2013-03-17 07:15:00,6.9,-5.9,30.31,North,9,1.0,4.0,55,0.00,,,0.00,0,Wunderground v.1.15,2013-03-17 12:15:00,
2013-03-17 07:17:00,6.8,-6.0,30.31,North,10,3.0,5.0,55,0.00,,,0.00,0,Wunderground v.1.15,2013-03-17 12:17:00,
2013-03-17 07:19:00,6.8,-5.6,30.31,North,10,1.0,5.0,56,0.00,,,0.00,0,Wunderground v.1.15,2013-03-17 12:19:00,
2013-03-17 07:20:00,6.8,-6.0,30.31,North,10,3.0,4.0,55,0.00,,,0.00,0,Wunderground v.1.15,2013-03-17 12:20:00,
2013-03-17 07:22:00,6.8,-6.0,30.31,North,10,2.0,4.0,55,0.00,,,0.00,0,Wunderground v.1.15,2013-03-17 12:22:00,
2013-03-17 07:25:00,6.8,-6.0,30.31,North,10,2.0,4.0,55,0.00,,,0.00,0,Wunderground v.1.15,2013-03-17 12:25:00,
2013-03-17 07:27:00,6.8,-6.0,30.32,North,10,0.0,4.0,55,0.00,,,0.00,0,Wunderground v.1.15,2013-03-17 12:27:00,
2013-03-17 07:30:00,6.8,-6.0,30.31,North,10,2.0,2.0,55,0.00,,,0.00,0,Wunderground v.1.15,2013-03-17 12:30:00,
2013-03-17 07:31:00,6.7,-6.1,30.32,North,10,1.0,4.0,55,0.00,,,0.00,0,Wunderground v.1.15,2013-03-17 12:31:00,
2013-03-17 07:32:00,6.7,-6.1,30.32,North,10,2.0,4.0,55,0.00,,,0.00,0,Wunderground v.1.15,2013-03-17 12:32:00,
2013-03-17 07:35:00,6.8,-6.0,30.32,North,10,2.0,4.0,55,0.00,,,0.00,0,Wunderground v.1.15,2013-03-17 12:35:00,
2013-03-17 07:37:00,6.8,-6.0,30.31,North,10,4.0,4.0,55,0.00,,,0.00,0,Wunderground v.1.15,2013-03-17 12:37:00,
2013-03-17 07:38:00,6.7,-6.1,30.31,North,10,2.0,4.0,55,0.00,,,0.00,0,Wunderground v.1.15,2013-03-17 12:38:00,
2013-03-17 07:40:00,6.8,-6.0,30.31,North,10,3.0,3.0,55,0.00,,,0.00,0,Wunderground v.1.15,2013-03-17 12:40:00,
2013-03-17 07:41:00,6.8,-6.0,30.31,North,10,4.0,4.0,55,0.00,,,0.00,0,Wunderground v.1.15,2013-03-17 12:41:00,
2013-03-17 07:42:00,6.8,-6.0,30.31,North,10,5.0,5.0,55,0.00,,,0.00,0,Wunderground v.1.15,2013-03-17 12:42:00,
2013-03-17 07:43:00,6.9,-5.5,30.31,North,10,4.0,5.0,56,0.00,,,0.00,0,Wunderground v.1.15,2013-03-17 12:43:00,
2013-03-17 07:45:00,6.9,-5.9,30.32,North,10,5.0,5.0,55,0.00,,,0.00,0,Wunderground v.1.15,2013-03-17 12:45:00,
2013-03-17 07:47:00,6.9,-5.9,30.32,NNE,15,4.0,7.0,55,0.00,,,0.00,0,Wunderground v.1.15,2013-03-17 12:47:00,
2013-03-17 07:48:00,7.0,-5.4,30.31,NNE,16,3.0,7.0,56,0.00,,,0.00,0,Wunderground v.1.15,2013-03-17 12:48:00,
2013-03-17 07:50:00,7.0,-5.8,30.31,NNE,16,4.0,4.0,55,0.00,,,0.00,0,Wunderground v.1.15,2013-03-17 12:50:00,
2013-03-17 07:52:00,7.0,-5.4,30.31,NNE,16,3.0,5.0,56,0.00,,,0.00,0,Wunderground v.1.15,2013-03-17 12:52:00,
2013-03-17 07:53:00,7.1,-5.7,30.31,NNE,16,5.0,6.0,55,0.00,,,0.00,0,Wunderground v.1.15,2013-03-17 12:53:00,
2013-03-17 07:55:00,7.1,-5.7,30.31,NNE,19,2.0,7.0,55,0.00,,,0.00,0,Wunderground v.1.15,2013-03-17 12:55:00,
2013-03-17 07:57:00,7.2,-5.6,30.31,NNE,19,3.0,7.0,55,0.00,,,0.00,0,Wunderground v.1.15,2013-03-17 12:57:00,
2013-03-17 07:58:00,7.3,-5.5,30.31,NNE,19,4.0,7.0,55,0.00,,,0.00,0,Wunderground v.1.15,2013-03-17 12:58:00,
2013-03-17 08:00:00,7.3,-5.5,30.31,NNE,20,3.0,4.0,55,0.00,,,0.00,0,Wunderground v.1.15,2013-03-17 13:00:00,
2013-03-17 08:02:00,7.4,-5.4,30.31,NNE,20,3.0,5.0,55,0.00,,,0.00,0,Wunderground v.1.15,2013-03-17 13:02:00,
2013-03-17 08:03:00,7.4,-5.4,30.30,NNE,23,4.0,8.0,55,0.00,,,0.00,0,Wunderground v.1.15,2013-03-17 13:03:00,
2013-03-17 08:05:00,7.4,-5.4,30.30,NNE,24,5.0,8.0,55,0.00,,,0.00,0,Wunderground v.1.15,2013-03-17 13:05:00,
2013-03-17 08:07:00,7.6,-5.2,30.30,NNE,24,4.0,8.0,55,0.00,,,0.00,0,Wunderground v.1.15,2013-03-17 13:07:00,
2013-03-17 08:08:00,7.5,-5.3,30.30,NNE,24,2.0,8.0,55,0.00,,,0.00,0,Wunderground v.1.15,2013-03-17 13:08:00,
2013-03-17 08:10:00,7.6,-5.2,30.30,NNE,24,7.0,8.0,55,0.00,,,0.00,0,Wunderground v.1.15,2013-03-17 13:10:00,
2013-03-17 08:12:00,7.7,-5.1,30.30,NNE,25,6.0,8.0,55,0.00,,,0.00,0,Wunderground v.1.15,2013-03-17 13:12:00,
2013-03-17 08:13:00,7.6,-5.2,30.29,NNE,25,4.0,8.0,55,0.00,,,0.00,0,Wunderground v.1.15,2013-03-17 13:13:00,
2013-03-17 08:14:00,7.6,-5.2,30.30,NNE,26,3.0,8.0,55,0.00,,,0.00,0,Wunderground v.1.15,2013-03-17 13:14:00,
2013-03-17 08:15:00,7.7,-5.1,30.30,NNE,27,6.0,8.0,55,0.00,,,0.00,0,Wunderground v.1.15,2013-03-17 13:15:00,
2013-03-17 08:18:00,7.7,-5.1,30.30,NNE,27,6.0,8.0,55,0.00,,,0.00,0,Wunderground v.1.15,2013-03-17 13:18:00,
2013-03-17 08:19:00,7.7,-5.1,30.30,NNE,30,7.0,8.0,55,0.00,,,0.00,0,Wunderground v.1.15,2013-03-17 13:19:00,
2013-03-17 08:20:00,7.8,-5.0,30.30,NNE,30,7.0,9.0,55,0.00,,,0.00,0,Wunderground v.1.15,2013-03-17 13:20:00,
2013-03-17 08:23:00,7.8,-5.0,30.30,NNE,31,5.0,9.0,55,0.00,,,0.00,0,Wunderground v.1.15,2013-03-17 13:23:00,
2013-03-17 08:24:00,7.8,-5.0,30.30,NNE,30,3.0,9.0,55,0.00,,,0.00,0,Wunderground v.1.15,2013-03-17 13:24:00,
2013-03-17 08:25:00,7.9,-4.9,30.30,NE,36,5.0,11.0,55,0.00,,,0.00,0,Wunderground v.1.15,2013-03-17 13:25:00,
2013-03-17 08:28:00,8.0,-4.9,30.30,NE,37,7.0,11.0,55,0.00,,,0.00,0,Wunderground v.1.15,2013-03-17 13:28:00,
2013-03-17 08:29:00,7.9,-4.9,30.29,NE,37,6.0,11.0,55,0.00,,,0.00,0,Wunderground v.1.15,2013-03-17 13:29:00,
2013-03-17 08:31:00,8.1,-4.8,30.30,NE,37,6.0,8.0,55,0.00,,,0.00,0,Wunderground v.1.15,2013-03-17 13:31:00,
2013-03-17 08:33:00,8.1,-5.1,30.30,NE,39,8.0,9.0,54,0.00,,,0.00,0,Wunderground v.1.15,2013-03-17 13:33:00,
2013-03-17 08:35:00,8.2,-5.0,30.29,ENE,60,6.0,11.0,54,0.00,,,0.00,0,Wunderground v.1.15,2013-03-17 13:35:00,
2013-03-17 08:36:00,8.2,-5.0,30.29,ENE,61,4.0,11.0,54,0.00,,,0.00,0,Wunderground v.1.15,2013-03-17 13:36:00,
2013-03-17 08:38:00,8.4,-4.9,30.29,ENE,65,13.0,13.0,54,0.00,,,0.00,0,Wunderground v.1.15,2013-03-17 13:38:00,
2013-03-17 08:40:00,8.4,-4.9,30.30,ESE,113,7.0,12.0,54,0.00,,,0.00,0,Wunderground v.1.15,2013-03-17 13:40:00,
2013-03-17 08:42:00,8.4,-4.9,30.31,ESE,118,10.0,12.0,54,0.00,,,0.00,0,Wunderground v.1.15,2013-03-17 13:42:00,
2013-03-17 08:43:00,8.5,-4.8,30.31,ESE,119,4.0,12.0,54,0.00,,,0.00,0,Wunderground v.1.15,2013-03-17 13:43:00,
2013-03-17 08:46:00,8.6,-5.1,30.30,SE,124,10.0,12.0,53,0.00,,,0.00,0,Wunderground v.1.15,2013-03-17 13:46:00,
2013-03-17 08:47:00,8.5,-5.2,30.30,SE,124,6.0,12.0,53,0.00,,,0.00,0,Wunderground v.1.15,2013-03-17 13:47:00,
2013-03-17 08:48:00,8.6,-5.1,30.31,ESE,123,4.0,12.0,53,0.00,,,0.00,0,Wunderground v.1.15,2013-03-17 13:48:00,
2013-03-17 08:49:00,8.7,-5.0,30.30,ESE,111,5.0,12.0,53,0.00,,,0.00,0,Wunderground v.1.15,2013-03-17 13:49:00,
2013-03-17 08:52:00,8.6,-5.1,30.31,ESE,117,6.0,12.0,53,0.00,,,0.00,0,Wunderground v.1.15,2013-03-17 13:52:00,
2013-03-17 08:53:00,8.6,-5.1,30.31,ESE,109,8.0,12.0,53,0.00,,,0.00,0,Wunderground v.1.15,2013-03-17 13:53:00,
2013-03-17 08:54:00,8.7,-5.0,30.31,ESE,102,3.0,12.0,53,0.00,,,0.00,0,Wunderground v.1.15,2013-03-17 13:54:00,
2013-03-17 08:57:00,8.6,-5.1,30.30,ESE,112,7.0,13.0,53,0.00,,,0.00,0,Wunderground v.1.15,2013-03-17 13:57:00,
2013-03-17 08:58:00,8.7,-5.0,30.30,ESE,102,9.0,13.0,53,0.00,,,0.00,0,Wunderground v.1.15,2013-03-17 13:58:00,
2013-03-17 08:59:00,8.6,-5.1,30.31,East,100,6.0,13.0,53,0.00,,,0.00,0,Wunderground v.1.15,2013-03-17 13:59:00,
2013-03-17 09:02:00,8.7,-5.0,30.32,ESE,104,9.0,10.0,53,0.00,,,0.00,0,Wunderground v.1.15,2013-03-17 14:02:00,
2013-03-17 09:04:00,8.8,-4.9,30.31,ESE,116,4.0,11.0,53,0.00,,,0.00,0,Wunderground v.1.15,2013-03-17 14:04:00,
2013-03-17 09:05:00,8.7,-5.0,30.31,ESE,117,7.0,12.0,53,0.00,,,0.00,0,Wunderground v.1.15,2013-03-17 14:05:00,
2013-03-17 09:08:00,9.0,-4.7,30.32,ESE,107,5.0,12.0,53,0.00,,,0.00,0,Wunderground v.1.15,2013-03-17 14:08:00,
2013-03-17 09:09:00,9.0,-4.7,30.31,East,100,3.0,12.0,53,0.00,,,0.00,0,Wunderground v.1.15,2013-03-17 14:09:00,
2013-03-17 09:10:00,9.1,-4.6,30.31,ESE,114,7.0,12.0,53,0.00,,,0.00,0,Wunderground v.1.15,2013-03-17 14:10:00,
2013-03-17 09:13:00,9.3,-4.4,30.31,ESE,122,8.0,13.0,53,0.00,,,0.00,0,Wunderground v.1.15,2013-03-17 14:13:00,
2013-03-17 09:14:00,9.3,-4.4,30.31,ESE,107,3.0,13.0,53,0.00,,,0.00,0,Wunderground v.1.15,2013-03-17 14:14:00,
2013-03-17 09:15:00,9.3,-4.4,30.31,ESE,102,4.0,13.0,53,0.00,,,0.00,0,Wunderground v.1.15,2013-03-17 14:15:00,
2013-03-17 09:18:00,9.5,-4.2,30.31,ESE,114,7.0,14.0,53,0.00,,,0.00,0,Wunderground v.1.15,2013-03-17 14:18:00,
2013-03-17 09:19:00,9.5,-4.2,30.31,ESE,114,7.0,14.0,53,0.00,,,0.00,0,Wunderground v.1.15,2013-03-17 14:19:00,
2013-03-17 09:20:00,9.5,-4.2,30.31,ESE,114,6.0,14.0,53,0.00,,,0.00,0,Wunderground v.1.15,2013-03-17 14:20:00,
2013-03-17 09:21:00,9.6,-4.5,30.31,ESE,106,2.0,9.0,52,0.00,,,0.00,0,Wunderground v.1.15,2013-03-17 14:21:00,
2013-03-17 09:23:00,9.6,-4.5,30.30,ESE,109,8.0,16.0,52,0.00,,,0.00,0,Wunderground v.1.15,2013-03-17 14:23:00,
2013-03-17 09:24:00,9.7,-4.4,30.31,ESE,110,5.0,16.0,52,0.00,,,0.00,0,Wunderground v.1.15,2013-03-17 14:24:00,
2013-03-17 09:25:00,9.7,-4.0,30.30,ESE,110,4.0,16.0,53,0.00,,,0.00,0,Wunderground v.1.15,2013-03-17 14:25:00,
2013-03-17 09:26:00,10.0,-4.2,30.31,ESE,110,6.0,16.0,52,0.00,,,0.00,0,Wunderground v.1.15,2013-03-17 14:26:00,
2013-03-17 09:28:00,10.1,-4.1,30.30,ESE,112,17.0,17.0,52,0.00,,,0.00,0,Wunderground v.1.15,2013-03-17 14:28:00,
2013-03-17 09:29:00,10.2,-4.0,30.30,East,97,10.0,17.0,52,0.00,,,0.00,0,Wunderground v.1.15,2013-03-17 14:29:00,
2013-03-17 09:30:00,10.2,-4.0,30.31,East,100,9.0,10.0,52,0.00,,,0.00,0,Wunderground v.1.15,2013-03-17 14:30:00,
2013-03-17 09:32:00,10.2,-4.0,30.30,East,99,7.0,11.0,52,0.00,,,0.00,0,Wunderground v.1.15,2013-03-17 14:32:00,
2013-03-17 09:34:00,10.2,-4.0,30.31,East,87,8.0,11.0,52,0.00,,,0.00,0,Wunderground v.1.15,2013-03-17 14:34:00,
2013-03-17 09:35:00,10.4,-3.8,30.30,East,88,8.0,11.0,52,0.00,,,0.00,0,Wunderground v.1.15,2013-03-17 14:35:00,
2013-03-17 09:37:00,10.5,-3.7,30.31,East,92,7.0,11.0,52,0.00,,,0.00,0,Wunderground v.1.15,2013-03-17 14:37:00,
2013-03-17 09:39:00,10.6,-3.6,30.30,East,95,4.0,11.0,52,0.00,,,0.00,0,Wunderground v.1.15,2013-03-17 14:39:00,
2013-03-17 09:40:00,10.6,-3.6,30.30,East,95,4.0,5.0,52,0.00,,,0.00,0,Wunderground v.1.15,2013-03-17 14:40:00,
2013-03-17 09:42:00,10.7,-3.5,30.31,ENE,73,4.0,10.0,52,0.00,,,0.00,0,Wunderground v.1.15,2013-03-17 14:42:00,
2013-03-17 09:44:00,10.9,-3.3,30.30,ENE,77,7.0,10.0,52,0.00,,,0.00,0,Wunderground v.1.15,2013-03-17 14:44:00,
2013-03-17 09:45:00,10.9,-3.3,30.31,ENE,77,6.0,10.0,52,0.00,,,0.00,0,Wunderground v.1.15,2013-03-17 14:45:00,
2013-03-17 09:48:00,10.9,-3.3,30.31,ESE,122,10.0,16.0,52,0.00,,,0.00,0,Wunderground v.1.15,2013-03-17 14:48:00,
2013-03-17 09:49:00,10.9,-3.7,30.31,SE,144,8.0,17.0,51,0.00,,,0.00,0,Wunderground v.1.15,2013-03-17 14:49:00,
2013-03-17 09:50:00,10.9,-3.7,30.31,SE,125,6.0,8.0,51,0.00,,,0.00,0,Wunderground v.1.15,2013-03-17 14:50:00,
2013-03-17 09:53:00,11.2,-3.0,30.31,ESE,111,12.0,12.0,52,0.00,,,0.00,0,Wunderground v.1.15,2013-03-17 14:53:00,
2013-03-17 09:54:00,11.2,-3.0,30.31,ESE,110,7.0,12.0,52,0.00,,,0.00,0,Wunderground v.1.15,2013-03-17 14:54:00,
2013-03-17 09:55:00,11.2,-3.4,30.31,ESE,109,6.0,12.0,51,0.00,,,0.00,0,Wunderground v.1.15,2013-03-17 14:55:00,
2013-03-17 09:58:00,11.4,-3.3,30.31,ESE,123,4.0,15.0,51,0.00,,,0.00,0,Wunderground v.1.15,2013-03-17 14:58:00,
2013-03-17 09:59:00,11.4,-3.3,30.30,ESE,120,9.0,15.0,51,0.00,,,0.00,0,Wunderground v.1.15,2013-03-17 14:59:00,
2013-03-17 10:00:00,11.5,-3.2,30.31,ESE,118,7.0,8.0,51,0.00,,,0.00,0,Wunderground v.1.15,2013-03-17 15:00:00,
2013-03-17 10:01:00,11.5,-3.2,30.30,ESE,116,8.0,10.0,51,0.00,,,0.00,0,Wunderground v.1.15,2013-03-17 15:01:00,
2013-03-17 10:03:00,11.5,-3.2,30.30,ESE,116,10.0,13.0,51,0.00,,,0.00,0,Wunderground v.1.15,2013-03-17 15:03:00,
2013-03-17 10:04:00,11.6,-3.1,30.30,SE,132,9.0,13.0,51,0.00,,,0.00,0,Wunderground v.1.15,2013-03-17 15:04:00,
2013-03-17 10:05:00,11.6,-3.1,30.31,SE,130,7.0,13.0,51,0.00,,,0.00,0,Wunderground v.1.15,2013-03-17 15:05:00,
2013-03-17 10:06:00,11.6,-3.1,30.31,SE,130,8.0,13.0,51,0.00,,,0.00,0,Wunderground v.1.15,2013-03-17 15:06:00,
2013-03-17 10:08:00,11.9,-2.8,30.30,ESE,109,8.0,13.0,51,0.00,,,0.00,0,Wunderground v.1.15,2013-03-17 15:08:00,
2013-03-17 10:10:00,12.0,-2.7,30.30,SE,127,11.0,13.0,51,0.00,,,0.00,0,Wunderground v.1.15,2013-03-17 15:10:00,
2013-03-17 10:11:00,12.0,-2.7,30.30,ESE,102,7.0,11.0,51,0.00,,,0.00,0,Wunderground v.1.15,2013-03-17 15:11:00,
2013-03-17 10:14:00,12.2,-2.5,30.31,ESE,116,8.0,14.0,51,0.00,,,0.00,0,Wunderground v.1.15,2013-03-17 15:14:00,
2013-03-17 10:15:00,12.3,-2.4,30.30,SE,132,6.0,14.0,51,0.00,,,0.00,0,Wunderground v.1.15,2013-03-17 15:15:00,
2013-03-17 10:17:00,12.3,-2.4,30.30,SE,133,11.0,14.0,51,0.00,,,0.00,0,Wunderground v.1.15,2013-03-17 15:17:00,
2013-03-17 10:19:00,12.4,-2.3,30.30,ESE,118,14.0,16.0,51,0.00,,,0.00,0,Wunderground v.1.15,2013-03-17 15:19:00,
2013-03-17 10:20:00,12.4,-2.7,30.30,ESE,113,14.0,15.0,50,0.00,,,0.00,0,Wunderground v.1.15,2013-03-17 15:20:00,
2013-03-17 10:22:00,12.3,-2.8,30.30,ESE,108,8.0,20.0,50,0.00,,,0.00,0,Wunderground v.1.15,2013-03-17 15:22:00,
2013-03-17 10:24:00,12.3,-2.4,30.30,SE,145,12.0,20.0,51,0.00,,,0.00,0,Wunderground v.1.15,2013-03-17 15:24:00,
2013-03-17 10:25:00,12.4,-2.3,30.30,SE,135,15.0,20.0,51,0.00,,,0.00,0,Wunderground v.1.15,2013-03-17 15:25:00,
2013-03-17 10:27:00,12.5,-2.2,30.30,ESE,122,10.0,20.0,51,0.00,,,0.00,0,Wunderground v.1.15,2013-03-17 15:27:00,
2013-03-17 10:29:00,12.6,-2.1,30.30,ESE,110,7.0,20.0,51,0.00,,,0.00,0,Wunderground v.1.15,2013-03-17 15:29:00,
2013-03-17 10:31:00,12.7,-2.0,30.30,ESE,119,8.0,14.0,51,0.00,,,0.00,0,Wunderground v.1.15,2013-03-17 15:31:00,
2013-03-17 10:32:00,12.7,-2.0,30.30,ESE,110,11.0,14.0,51,0.00,,,0.00,0,Wunderground v.1.15,2013-03-17 15:32:00,
2013-03-17 10:35:00,12.9,-1.9,30.30,ESE,105,7.0,17.0,51,0.00,,,0.00,0,Wunderground v.1.15,2013-03-17 15:35:00,
2013-03-17 10:36:00,12.9,-1.9,30.29,ESE,111,10.0,17.0,51,0.00,,,0.00,0,Wunderground v.1.15,2013-03-17 15:36:00,
2013-03-17 10:38:00,13.1,-1.7,30.29,ESE,104,8.0,17.0,51,0.00,,,0.00,0,Wunderground v.1.15,2013-03-17 15:38:00,
2013-03-17 10:40:00,13.2,-1.6,30.29,SE,129,11.0,19.0,51,0.00,,,0.00,0,Wunderground v.1.15,2013-03-17 15:40:00,
2013-03-17 10:41:00,13.4,-1.4,30.30,SE,136,13.0,14.0,51,0.00,,,0.00,0,Wunderground v.1.15,2013-03-17 15:41:00,
2013-03-17 10:43:00,13.4,-1.8,30.30,SE,146,14.0,15.0,50,0.00,,,0.00,0,Wunderground v.1.15,2013-03-17 15:43:00,
2013-03-17 10:45:00,13.4,-1.8,30.29,SE,140,15.0,19.0,50,0.00,,,0.00,0,Wunderground v.1.15,2013-03-17 15:45:00,
2013-03-17 10:46:00,13.6,-1.6,30.29,SE,129,16.0,19.0,50,0.00,,,0.00,0,Wunderground v.1.15,2013-03-17 15:46:00,
2013-03-17 10:47:00,13.5,-1.7,30.29,SSE,147,11.0,19.0,50,0.00,,,0.00,0,Wunderground v.1.15,2013-03-17 15:47:00,
2013-03-17 10:48:00,13.7,-1.5,30.29,ESE,114,5.0,19.0,50,0.00,,,0.00,0,Wunderground v.1.15,2013-03-17 15:48:00,
2013-03-17 10:50:00,13.9,-1.3,30.29,ESE,106,9.0,9.0,50,0.00,,,0.00,0,Wunderground v.1.15,2013-03-17 15:50:00,
2013-03-17 10:51:00,14.0,-1.3,30.28,East,99,11.0,11.0,50,0.00,,,0.00,0,Wunderground v.1.15,2013-03-17 15:51:00,
2013-03-17 10:52:00,14.0,-1.3,30.29,ESE,118,7.0,13.0,50,0.00,,,0.00,0,Wunderground v.1.15,2013-03-17 15:52:00,
2013-03-17 10:53:00,14.1,-1.2,30.29,ESE,115,10.0,13.0,50,0.00,,,0.00,0,Wunderground v.1.15,2013-03-17 15:53:00,
2013-03-17 10:55:00,14.3,-1.0,30.29,ESE,110,11.0,13.0,50,0.00,,,0.00,0,Wunderground v.1.15,2013-03-17 15:55:00,
2013-03-17 10:57:00,14.4,-0.9,30.29,ESE,123,8.0,13.0,50,0.00,,,0.00,0,Wunderground v.1.15,2013-03-17 15:57:00,
2013-03-17 10:58:00,14.4,-0.9,30.29,SE,124,7.0,13.0,50,0.00,,,0.00,0,Wunderground v.1.15,2013-03-17 15:58:00,
2013-03-17 11:01:00,14.6,-0.7,30.29,SE,145,12.0,15.0,50,0.00,,,0.00,0,Wunderground v.1.15,2013-03-17 16:01:00,
2013-03-17 11:02:00,14.6,-0.7,30.29,ESE,112,10.0,15.0,50,0.00,,,0.00,0,Wunderground v.1.15,2013-03-17 16:02:00,
2013-03-17 11:03:00,14.7,-0.6,30.28,SE,143,12.0,15.0,50,0.00,,,0.00,0,Wunderground v.1.15,2013-03-17 16:03:00,
2013-03-17 11:06:00,14.9,-0.8,30.28,SE,144,10.0,20.0,49,0.00,,,0.00,0,Wunderground v.1.15,2013-03-17 16:06:00,
2013-03-17 11:07:00,14.9,-0.4,30.29,SSE,150,11.0,20.0,50,0.00,,,0.00,0,Wunderground v.1.15,2013-03-17 16:07:00,
2013-03-17 11:08:00,15.0,-0.3,30.29,SE,142,8.0,20.0,50,0.00,,,0.00,0,Wunderground v.1.15,2013-03-17 16:08:00,
2013-03-17 11:12:00,15.1,-0.7,30.29,ESE,118,9.0,22.0,49,0.00,,,0.00,0,Wunderground v.1.15,2013-03-17 16:12:00,
2013-03-17 11:13:00,15.1,-0.7,30.28,ESE,120,9.0,22.0,49,0.00,,,0.00,0,Wunderground v.1.15,2013-03-17 16:13:00,
2013-03-17 11:17:00,15.2,-0.6,30.28,ESE,118,10.0,22.0,49,0.00,,,0.00,0,Wunderground v.1.15,2013-03-17 16:17:00,
2013-03-17 11:18:00,15.3,-0.5,30.28,SE,126,6.0,22.0,49,0.00,,,0.00,0,Wunderground v.1.15,2013-03-17 16:18:00,
2013-03-17 11:19:00,15.3,-0.5,30.28,SE,126,11.0,22.0,49,0.00,,,0.00,0,Wunderground v.1.15,2013-03-17 16:19:00,
2013-03-17 11:22:00,15.6,-0.2,30.28,ESE,114,9.0,12.0,49,0.00,,,0.00,0,Wunderground v.1.15,2013-03-17 16:22:00,
2013-03-17 11:23:00,15.5,-0.3,30.28,ESE,109,13.0,15.0,49,0.00,,,0.00,0,Wunderground v.1.15,2013-03-17 16:23:00,
2013-03-17 11:24:00,15.5,-0.7,30.28,ESE,107,10.0,15.0,48,0.00,,,0.00,0,Wunderground v.1.15,2013-03-17 16:24:00,
2013-03-17 11:27:00,15.5,-0.3,30.28,SE,124,9.0,16.0,49,0.00,,,0.00,0,Wunderground v.1.15,2013-03-17 16:27:00,
2013-03-17 11:28:00,15.6,-0.2,30.27,ESE,109,7.0,16.0,49,0.00,,,0.00,0,Wunderground v.1.15,2013-03-17 16:28:00,
2013-03-17 11:29:00,15.8,0.0,30.27,ESE,102,8.0,16.0,49,0.00,,,0.00,0,Wunderground v.1.15,2013-03-17 16:29:00,
2013-03-17 11:30:00,15.8,0.0,30.27,ESE,104,10.0,16.0,49,0.00,,,0.00,0,Wunderground v.1.15,2013-03-17 16:30:00,
2013-03-17 11:32:00,16.0,0.2,30.27,SE,125,8.0,16.0,49,0.00,,,0.00,0,Wunderground v.1.15,2013-03-17 16:32:00,
2013-03-17 11:33:00,16.0,0.2,30.28,SE,135,8.0,16.0,49,0.00,,,0.00,0,Wunderground v.1.15,2013-03-17 16:33:00,
2013-03-17 11:35:00,16.2,0.8,30.27,SE,136,11.0,16.0,50,0.00,,,0.00,0,Wunderground v.1.15,2013-03-17 16:35:00,
2013-03-17 11:38:00,16.3,0.5,30.27,ESE,111,6.0,18.0,49,0.00,,,0.00,0,Wunderground v.1.15,2013-03-17 16:38:00,
2013-03-17 11:40:00,16.2,0.4,30.27,SE,144,6.0,18.0,49,0.00,,,0.00,0,Wunderground v.1.15,2013-03-17 16:40:00,
2013-03-17 11:43:00,16.3,0.5,30.26,ESE,105,8.0,12.0,49,0.00,,,0.00,0,Wunderground v.1.15,2013-03-17 16:43:00,
2013-03-17 11:45:00,16.5,0.6,30.27,SE,136,11.0,12.0,49,0.00,,,0.00,0,Wunderground v.1.15,2013-03-17 16:45:00,
2013-03-17 11:48:00,16.5,0.6,30.27,SE,126,15.0,15.0,49,0.00,,,0.00,0,Wunderground v.1.15,2013-03-17 16:48:00,
2013-03-17 11:50:00,16.4,0.1,30.27,ESE,119,9.0,15.0,48,0.00,,,0.00,0,Wunderground v.1.15,2013-03-17 16:50:00,
2013-03-17 11:53:00,16.7,0.8,30.27,ESE,112,7.0,13.0,49,0.00,,,0.00,0,Wunderground v.1.15,2013-03-17 16:53:00,
2013-03-17 11:55:00,16.7,0.4,30.27,ESE,114,9.0,15.0,48,0.00,,,0.00,0,Wunderground v.1.15,2013-03-17 16:55:00,
2013-03-17 11:58:00,16.8,0.9,30.27,East,81,6.0,15.0,49,0.00,,,0.00,0,Wunderground v.1.15,2013-03-17 16:58:00,
2013-03-17 11:59:00,16.8,0.9,30.26,East,82,7.0,15.0,49,0.00,,,0.00,0,Wunderground v.1.15,2013-03-17 16:59:00,
2013-03-17 12:00:00,16.9,1.0,30.27,East,93,8.0,8.0,49,0.00,,,0.00,0,Wunderground v.1.15,2013-03-17 17:00:00,
2013-03-17 12:03:00,16.8,0.5,30.26,SE,135,11.0,13.0,48,0.00,,,0.00,0,Wunderground v.1.15,2013-03-17 17:03:00,
2013-03-17 12:04:00,16.8,0.5,30.26,SE,134,8.0,13.0,48,0.00,,,0.00,0,Wunderground v.1.15,2013-03-17 17:04:00,
2013-03-17 12:05:00,16.9,1.0,30.26,SE,132,8.0,13.0,49,0.00,,,0.00,0,Wunderground v.1.15,2013-03-17 17:05:00,
2013-03-17 12:08:00,17.0,1.1,30.26,SSE,149,6.0,18.0,49,0.00,,,0.00,0,Wunderground v.1.15,2013-03-17 17:08:00,
2013-03-17 12:09:00,17.0,1.1,30.26,SE,128,7.0,18.0,49,0.00,,,0.00,0,Wunderground v.1.15,2013-03-17 17:09:00,
2013-03-17 12:10:00,17.2,1.7,30.27,SE,143,11.0,11.0,50,0.00,,,0.00,0,Wunderground v.1.15,2013-03-17 17:10:00,
2013-03-17 12:11:00,17.3,1.8,30.26,SE,142,9.0,13.0,50,0.00,,,0.00,0,Wunderground v.1.15,2013-03-17 17:11:00,
2013-03-17 12:13:00,17.4,1.5,30.26,SE,128,9.0,13.0,49,0.00,,,0.00,0,Wunderground v.1.15,2013-03-17 17:13:00,
2013-03-17 12:14:00,17.4,1.5,30.26,SE,126,6.0,13.0,49,0.00,,,0.00,0,Wunderground v.1.15,2013-03-17 17:14:00,
2013-03-17 12:15:00,17.6,2.1,30.26,ESE,119,8.0,13.0,50,0.00,,,0.00,0,Wunderground v.1.15,2013-03-17 17:15:00,
2013-03-17 12:17:00,17.7,2.2,30.26,SSE,149,9.0,13.0,50,0.00,,,0.00,0,Wunderground v.1.15,2013-03-17 17:17:00,
2013-03-17 12:19:00,17.7,1.7,30.25,SE,129,9.0,16.0,49,0.00,,,0.00,0,Wunderground v.1.15,2013-03-17 17:19:00,
2013-03-17 12:20:00,17.8,1.8,30.26,SE,131,14.0,14.0,49,0.00,,,0.00,0,Wunderground v.1.15,2013-03-17 17:20:00,
2013-03-17 12:21:00,17.9,1.9,30.26,SE,134,2.0,14.0,49,0.00,,,0.00,0,Wunderground v.1.15,2013-03-17 17:21:00,
2013-03-17 12:25:00,18.1,2.6,30.26,SSE,149,13.0,16.0,50,0.00,,,0.00,0,Wunderground v.1.15,2013-03-17 17:25:00,
2013-03-17 12:27:00,18.2,2.6,30.25,ESE,109,6.0,16.0,50,0.00,,,0.00,0,Wunderground v.1.15,2013-03-17 17:27:00,
2013-03-17 12:30:00,18.3,2.3,30.25,SE,128,14.0,16.0,49,0.00,,,0.00,0,Wunderground v.1.15,2013-03-17 17:30:00,
2013-03-17 12:31:00,18.2,2.2,30.25,ESE,110,5.0,8.0,49,0.00,,,0.00,0,Wunderground v.1.15,2013-03-17 17:31:00,
2013-03-17 12:32:00,18.2,2.2,30.26,ESE,110,7.0,8.0,49,0.00,,,0.00,0,Wunderground v.1.15,2013-03-17 17:32:00,
2013-03-17 12:35:00,18.4,2.4,30.25,ESE,106,11.0,14.0,49,0.00,,,0.00,0,Wunderground v.1.15,2013-03-17 17:35:00,
2013-03-17 12:36:00,18.4,2.4,30.25,ESE,114,12.0,14.0,49,0.00,,,0.00,0,Wunderground v.1.15,2013-03-17 17:36:00,
2013-03-17 12:37:00,18.4,2.4,30.25,ESE,106,5.0,14.0,49,0.00,,,0.00,0,Wunderground v.1.15,2013-03-17 17:37:00,
2013-03-17 12:40:00,18.5,2.5,30.25,East,93,10.0,18.0,49,0.00,,,0.00,0,Wunderground v.1.15,2013-03-17 17:40:00,
2013-03-17 12:42:00,18.5,2.5,30.25,SE,126,8.0,12.0,49,0.00,,,0.00,0,Wunderground v.1.15,2013-03-17 17:42:00,
2013-03-17 12:45:00,18.8,2.8,30.25,SE,134,10.0,18.0,49,0.00,,,0.00,0,Wunderground v.1.15,2013-03-17 17:45:00,
2013-03-17 12:46:00,18.8,2.8,30.25,SE,146,11.0,18.0,49,0.00,,,0.00,0,Wunderground v.1.15,2013-03-17 17:46:00,
2013-03-17 12:47:00,18.9,2.4,30.25,SSE,147,9.0,18.0,48,0.00,,,0.00,0,Wunderground v.1.15,2013-03-17 17:47:00,
2013-03-17 12:50:00,19.0,3.0,30.25,SE,131,7.0,8.0,49,0.00,,,0.00,0,Wunderground v.1.15,2013-03-17 17:50:00,
2013-03-17 12:51:00,19.3,3.7,30.25,SE,129,9.0,12.0,50,0.00,,,0.00,0,Wunderground v.1.15,2013-03-17 17:51:00,
2013-03-17 12:52:00,19.5,3.4,30.24,SE,126,12.0,12.0,49,0.00,,,0.00,0,Wunderground v.1.15,2013-03-17 17:52:00,
2013-03-17 12:55:00,19.4,2.9,30.24,ESE,114,5.0,13.0,48,0.00,,,0.00,0,Wunderground v.1.15,2013-03-17 17:55:00,
2013-03-17 12:56:00,19.4,2.9,30.24,ESE,111,9.0,13.0,48,0.00,,,0.00,0,Wunderground v.1.15,2013-03-17 17:56:00,
2013-03-17 12:58:00,19.4,2.9,30.24,ESE,108,9.0,13.0,48,0.00,,,0.00,0,Wunderground v.1.15,2013-03-17 17:58:00,
2013-03-17 13:00:00,19.4,2.9,30.24,ESE,110,13.0,13.0,48,0.00,,,0.00,0,Wunderground v.1.15,2013-03-17 18:00:00,
2013-03-17 13:02:00,19.4,2.9,30.24,SE,146,13.0,17.0,48,0.00,,,0.00,0,Wunderground v.1.15,2013-03-17 18:02:00,
2013-03-17 13:03:00,19.4,2.9,30.23,SSE,152,13.0,17.0,48,0.00,,,0.00,0,Wunderground v.1.15,2013-03-17 18:03:00,
2013-03-17 13:05:00,19.6,3.1,30.24,SE,131,7.0,18.0,48,0.00,,,0.00,0,Wunderground v.1.15,2013-03-17 18:05:00,
2013-03-17 13:07:00,19.5,3.0,30.23,SSE,147,11.0,18.0,48,0.00,,,0.00,0,Wunderground v.1.15,2013-03-17 18:07:00,
2013-03-17 13:08:00,19.6,3.5,30.24,ESE,122,4.0,18.0,49,0.00,,,0.00,0,Wunderground v.1.15,2013-03-17 18:08:00,
2013-03-17 13:10:00,19.8,3.7,30.23,SE,127,13.0,16.0,49,0.00,,,0.00,0,Wunderground v.1.15,2013-03-17 18:10:00,
2013-03-17 13:12:00,19.9,3.3,30.23,East,98,14.0,16.0,48,0.00,,,0.00,0,Wunderground v.1.15,2013-03-17 18:12:00,
2013-03-17 13:13:00,19.9,3.3,30.23,SE,126,10.0,16.0,48,0.00,,,0.00,0,Wunderground v.1.15,2013-03-17 18:13:00,
2013-03-17 13:15:00,20.0,3.4,30.23,ESE,105,6.0,18.0,48,0.00,,,0.00,0,Wunderground v.1.15,2013-03-17 18:15:00,
2013-03-17 13:17:00,19.9,2.9,30.23,SSE,149,15.0,20.0,47,0.00,,,0.00,0,Wunderground v.1.15,2013-03-17 18:17:00,
2013-03-17 13:18:00,19.8,2.8,30.23,SSE,151,9.0,20.0,47,0.00,,,0.00,0,Wunderground v.1.15,2013-03-17 18:18:00,
2013-03-17 13:21:00,19.9,3.3,30.23,SSE,148,14.0,15.0,48,0.00,,,0.00,0,Wunderground v.1.15,2013-03-17 18:21:00,
2013-03-17 13:22:00,19.9,3.3,30.23,ESE,111,7.0,15.0,48,0.00,,,0.00,0,Wunderground v.1.15,2013-03-17 18:22:00,
2013-03-17 13:23:00,20.0,3.4,30.22,ESE,110,6.0,15.0,48,0.00,,,0.00,0,Wunderground v.1.15,2013-03-17 18:23:00,
2013-03-17 13:26:00,20.3,4.2,30.22,SE,139,13.0,15.0,49,0.00,,,0.00,0,Wunderground v.1.15,2013-03-17 18:26:00,
2013-03-17 13:28:00,20.5,4.3,30.22,ESE,107,6.0,15.0,49,0.00,,,0.00,0,Wunderground v.1.15,2013-03-17 18:28:00,
2013-03-17 13:29:00,20.7,4.5,30.23,ESE,104,11.0,15.0,49,0.00,,,0.00,0,Wunderground v.1.15,2013-03-17 18:29:00,
2013-03-17 13:31:00,20.7,4.1,30.22,ESE,117,7.0,15.0,48,0.00,,,0.00,0,Wunderground v.1.15,2013-03-17 18:31:00,
2013-03-17 13:33:00,20.8,4.2,30.23,SE,129,8.0,15.0,48,0.00,,,0.00,0,Wunderground v.1.15,2013-03-17 18:33:00,
2013-03-17 13:34:00,20.8,4.2,30.22,SE,140,11.0,15.0,48,0.00,,,0.00,0,Wunderground v.1.15,2013-03-17 18:34:00,
2013-03-17 13:36:00,20.8,4.2,30.22,ESE,113,10.0,15.0,48,0.00,,,0.00,0,Wunderground v.1.15,2013-03-17 18:36:00,
2013-03-17 13:38:00,20.7,4.1,30.21,SE,124,9.0,15.0,48,0.00,,,0.00,0,Wunderground v.1.15,2013-03-17 18:38:00,
2013-03-17 13:39:00,20.7,4.1,30.22,ESE,123,6.0,15.0,48,0.00,,,0.00,0,Wunderground v.1.15,2013-03-17 18:39:00,
2013-03-17 13:41:00,20.9,4.3,30.21,East,95,7.0,14.0,48,0.00,,,0.00,0,Wunderground v.1.15,2013-03-17 18:41:00,
2013-03-17 13:43:00,21.0,4.4,30.20,ESE,120,5.0,14.0,48,0.00,,,0.00,0,Wunderground v.1.15,2013-03-17 18:43:00,
2013-03-17 13:44:00,21.0,4.4,30.20,ENE,68,9.0,14.0,48,0.00,,,0.00,0,Wunderground v.1.15,2013-03-17 18:44:00,
2013-03-17 13:47:00,21.4,5.2,30.20,East,94,8.0,14.0,49,0.00,,,0.00,0,Wunderground v.1.15,2013-03-17 18:47:00,
2013-03-17 13:48:00,21.4,4.7,30.21,East,81,7.0,14.0,48,0.00,,,0.00,0,Wunderground v.1.15,2013-03-17 18:48:00,
2013-03-17 13:49:00,21.4,4.7,30.20,East,93,9.0,14.0,48,0.00,,,0.00,0,Wunderground v.1.15,2013-03-17 18:49:00,
2013-03-17 13:52:00,21.5,4.8,30.20,East,87,11.0,12.0,48,0.00,,,0.00,0,Wunderground v.1.15,2013-03-17 18:52:00,
2013-03-17 13:54:00,21.6,4.9,30.20,East,90,8.0,13.0,48,0.00,,,0.00,0,Wunderground v.1.15,2013-03-17 18:54:00,
2013-03-17 13:57:00,21.5,4.8,30.19,East,82,13.0,14.0,48,0.00,,,0.00,0,Wunderground v.1.15,2013-03-17 18:57:00,
2013-03-17 13:59:00,21.4,4.7,30.20,ESE,121,9.0,14.0,48,0.00,,,0.00,0,Wunderground v.1.15,2013-03-17 18:59:00,
2013-03-17 14:00:00,21.4,4.3,30.19,SE,136,8.0,14.0,47,0.00,,,0.00,0,Wunderground v.1.15,2013-03-17 19:00:00,
2013-03-17 14:02:00,21.5,4.8,30.19,East,101,13.0,13.0,48,0.00,,,0.00,0,Wunderground v.1.15,2013-03-17 19:02:00,
2013-03-17 14:04:00,21.6,4.9,30.19,SE,124,8.0,14.0,48,0.00,,,0.00,0,Wunderground v.1.15,2013-03-17 19:04:00,
2013-03-17 14:05:00,21.7,5.0,30.19,ESE,103,7.0,14.0,48,0.00,,,0.00,0,Wunderground v.1.15,2013-03-17 19:05:00,
2013-03-17 14:08:00,21.6,4.4,30.19,ESE,102,8.0,18.0,47,0.00,,,0.00,0,Wunderground v.1.15,2013-03-17 19:08:00,
2013-03-17 14:09:00,21.5,4.8,30.19,ESE,117,7.0,18.0,48,0.00,,,0.00,0,Wunderground v.1.15,2013-03-17 19:09:00,
2013-03-17 14:10:00,21.5,4.8,30.19,ESE,117,8.0,18.0,48,0.00,,,0.00,0,Wunderground v.1.15,2013-03-17 19:10:00,
2013-03-17 14:13:00,21.5,4.8,30.19,ESE,120,14.0,16.0,48,0.00,,,0.00,0,Wunderground v.1.15,2013-03-17 19:13:00,
2013-03-17 14:14:00,21.5,4.8,30.19,East,93,9.0,20.0,48,0.00,,,0.00,0,Wunderground v.1.15,2013-03-17 19:14:00,
2013-03-17 14:15:00,21.5,4.8,30.19,East,94,11.0,20.0,48,0.00,,,0.00,0,Wunderground v.1.15,2013-03-17 19:15:00,
2013-03-17 14:18:00,21.6,5.4,30.19,ESE,106,13.0,20.0,49,0.00,,,0.00,0,Wunderground v.1.15,2013-03-17 19:18:00,
2013-03-17 14:20:00,21.6,4.9,30.18,East,97,8.0,20.0,48,0.00,,,0.00,0,Wunderground v.1.15,2013-03-17 19:20:00,
2013-03-17 14:23:00,21.8,5.5,30.18,ENE,72,4.0,16.0,49,0.00,,,0.00,0,Wunderground v.1.15,2013-03-17 19:23:00,
2013-03-17 14:25:00,21.9,5.2,30.18,ESE,111,7.0,16.0,48,0.00,,,0.00,0,Wunderground v.1.15,2013-03-17 19:25:00,
2013-03-17 14:29:00,22.0,5.3,30.18,ESE,107,10.0,17.0,48,0.00,,,0.00,0,Wunderground v.1.15,2013-03-17 19:29:00,
2013-03-17 14:30:00,22.0,4.8,30.17,ESE,108,8.0,8.0,47,0.00,,,0.00,0,Wunderground v.1.15,2013-03-17 19:30:00,
2013-03-17 14:31:00,22.0,4.8,30.18,ESE,102,6.0,11.0,47,0.00,,,0.00,0,Wunderground v.1.15,2013-03-17 19:31:00,
2013-03-17 14:34:00,22.2,5.9,30.17,ENE,70,7.0,13.0,49,0.00,,,0.00,0,Wunderground v.1.15,2013-03-17 19:34:00,
2013-03-17 14:35:00,22.2,5.9,30.17,ESE,113,6.0,13.0,49,0.00,,,0.00,0,Wunderground v.1.15,2013-03-17 19:35:00,
2013-03-17 14:36:00,22.3,5.6,30.17,East,79,8.0,13.0,48,0.00,,,0.00,0,Wunderground v.1.15,2013-03-17 19:36:00,
2013-03-17 14:39:00,22.3,5.6,30.17,SSE,147,10.0,15.0,48,0.00,,,0.00,0,Wunderground v.1.15,2013-03-17 19:39:00,
2013-03-17 14:40:00,22.2,5.0,30.16,SE,143,13.0,15.0,47,0.00,,,0.00,0,Wunderground v.1.15,2013-03-17 19:40:00,
2013-03-17 14:41:00,22.1,4.9,30.16,SE,131,8.0,15.0,47,0.00,,,0.00,0,Wunderground v.1.15,2013-03-17 19:41:00,
2013-03-17 14:42:00,22.1,5.4,30.16,SE,145,7.0,15.0,48,0.00,,,0.00,0,Wunderground v.1.15,2013-03-17 19:42:00,
2013-03-17 14:44:00,22.3,6.0,30.16,ESE,122,8.0,15.0,49,0.00,,,0.00,0,Wunderground v.1.15,2013-03-17 19:44:00,
2013-03-17 14:45:00,22.5,6.2,30.15,ENE,72,12.0,15.0,49,0.00,,,0.00,0,Wunderground v.1.15,2013-03-17 19:45:00,
2013-03-17 14:46:00,22.5,6.2,30.15,ENE,58,10.0,15.0,49,0.00,,,0.00,0,Wunderground v.1.15,2013-03-17 19:46:00,
2013-03-17 14:47:00,22.5,5.7,30.15,East,86,9.0,15.0,48,0.00,,,0.00,0,Wunderground v.1.15,2013-03-17 19:47:00,
2013-03-17 14:49:00,22.4,5.6,30.15,ESE,118,8.0,15.0,48,0.00,,,0.00,0,Wunderground v.1.15,2013-03-17 19:49:00,
2013-03-17 14:50:00,22.4,5.6,30.15,ENE,78,7.0,11.0,48,0.00,,,0.00,0,Wunderground v.1.15,2013-03-17 19:50:00,
2013-03-17 14:52:00,22.5,5.7,30.15,ESE,114,11.0,12.0,48,0.00,,,0.00,0,Wunderground v.1.15,2013-03-17 19:52:00,
2013-03-17 14:54:00,22.5,5.7,30.15,East,79,7.0,13.0,48,0.00,,,0.00,0,Wunderground v.1.15,2013-03-17 19:54:00,
2013-03-17 14:56:00,22.6,5.8,30.15,ENE,61,5.0,13.0,48,0.00,,,0.00,0,Wunderground v.1.15,2013-03-17 19:56:00,
2013-03-17 14:57:00,22.5,5.7,30.14,ENE,66,7.0,13.0,48,0.00,,,0.00,0,Wunderground v.1.15,2013-03-17 19:57:00,
2013-03-17 14:58:00,22.6,5.8,30.14,East,86,6.0,13.0,48,0.00,,,0.00,0,Wunderground v.1.15,2013-03-17 19:58:00,
2013-03-17 14:59:00,22.8,6.0,30.15,ESE,111,10.0,13.0,48,0.00,,,0.00,0,Wunderground v.1.15,2013-03-17 19:59:00,
2013-03-17 15:02:00,22.5,5.3,30.14,ESE,112,8.0,13.0,47,0.00,,,0.00,0,Wunderground v.1.15,2013-03-17 20:02:00,
2013-03-17 15:03:00,22.5,5.3,30.14,ESE,112,9.0,13.0,47,0.00,,,0.00,0,Wunderground v.1.15,2013-03-17 20:03:00,
2013-03-17 15:04:00,22.5,5.3,30.13,ESE,122,6.0,13.0,47,0.00,,,0.00,0,Wunderground v.1.15,2013-03-17 20:04:00,
2013-03-17 15:07:00,22.8,6.0,30.14,ESE,119,12.0,16.0,48,0.00,,,0.00,0,Wunderground v.1.15,2013-03-17 20:07:00,
2013-03-17 15:08:00,22.8,6.0,30.13,ESE,114,9.0,16.0,48,0.00,,,0.00,0,Wunderground v.1.15,2013-03-17 20:08:00,
2013-03-17 15:09:00,22.9,6.1,30.13,ESE,106,6.0,16.0,48,0.00,,,0.00,0,Wunderground v.1.15,2013-03-17 20:09:00,
2013-03-17 15:13:00,22.9,6.1,30.13,ESE,120,8.0,16.0,48,0.00,,,0.00,0,Wunderground v.1.15,2013-03-17 20:13:00,
2013-03-17 15:15:00,22.8,5.6,30.13,ESE,106,10.0,16.0,47,0.00,,,0.00,0,Wunderground v.1.15,2013-03-17 20:15:00,
2013-03-17 15:18:00,22.7,5.5,30.13,ENE,61,6.0,16.0,47,0.00,,,0.00,0,Wunderground v.1.15,2013-03-17 20:18:00,
2013-03-17 15:20:00,22.7,5.9,30.12,ENE,70,4.0,16.0,48,0.00,,,0.00,0,Wunderground v.1.15,2013-03-17 20:20:00,
2013-03-17 15:23:00,22.9,6.6,30.13,ENE,75,6.0,16.0,49,0.00,,,0.00,0,Wunderground v.1.15,2013-03-17 20:23:00,
2013-03-17 15:25:00,23.1,6.7,30.13,ENE,76,3.0,16.0,49,0.00,,,0.00,0,Wunderground v.1.15,2013-03-17 20:25:00,
2013-03-17 15:28:00,23.3,6.5,30.12,East,90,8.0,16.0,48,0.00,,,0.00,0,Wunderground v.1.15,2013-03-17 20:28:00,
2013-03-17 15:29:00,23.2,6.4,30.12,East,89,5.0,16.0,48,0.00,,,0.00,0,Wunderground v.1.15,2013-03-17 20:29:00,
2013-03-17 15:30:00,23.2,6.4,30.12,East,93,11.0,11.0,48,0.00,,,0.00,0,Wunderground v.1.15,2013-03-17 20:30:00,
2013-03-17 15:33:00,22.9,6.1,30.12,ESE,113,7.0,16.0,48,0.00,,,0.00,0,Wunderground v.1.15,2013-03-17 20:33:00,
2013-03-17 15:34:00,22.9,6.1,30.12,ESE,104,8.0,16.0,48,0.00,,,0.00,0,Wunderground v.1.15,2013-03-17 20:34:00,
2013-03-17 15:35:00,22.9,6.1,30.12,ESE,121,13.0,18.0,48,0.00,,,0.00,0,Wunderground v.1.15,2013-03-17 20:35:00,
2013-03-17 15:38:00,22.8,6.0,30.12,East,96,8.0,18.0,48,0.00,,,0.00,0,Wunderground v.1.15,2013-03-17 20:38:00,
2013-03-17 15:39:00,22.8,6.5,30.12,East,96,6.0,18.0,49,0.00,,,0.00,0,Wunderground v.1.15,2013-03-17 20:39:00,
2013-03-17 15:40:00,22.8,6.0,30.12,East,83,10.0,18.0,48,0.00,,,0.00,0,Wunderground v.1.15,2013-03-17 20:40:00,
2013-03-17 15:43:00,22.8,6.5,30.11,ENE,78,10.0,13.0,49,0.00,,,0.00,0,Wunderground v.1.15,2013-03-17 20:43:00,
2013-03-17 15:44:00,22.8,6.5,30.11,ENE,74,8.0,13.0,49,0.00,,,0.00,0,Wunderground v.1.15,2013-03-17 20:44:00,
2013-03-17 15:45:00,22.7,6.4,30.12,ENE,69,10.0,13.0,49,0.00,,,0.00,0,Wunderground v.1.15,2013-03-17 20:45:00,
2013-03-17 15:47:00,22.8,6.5,30.12,East,87,9.0,14.0,49,0.00,,,0.00,0,Wunderground v.1.15,2013-03-17 20:47:00,
2013-03-17 15:49:00,22.7,6.4,30.12,SE,124,10.0,14.0,49,0.00,,,0.00,0,Wunderground v.1.15,2013-03-17 20:49:00,
2013-03-17 15:50:00,22.8,6.5,30.12,ENE,71,9.0,9.0,49,0.00,,,0.00,0,Wunderground v.1.15,2013-03-17 20:50:00,
2013-03-17 15:52:00,22.8,6.9,30.12,East,87,6.0,10.0,50,0.00,,,0.00,0,Wunderground v.1.15,2013-03-17 20:52:00,
2013-03-17 15:54:00,23.0,7.5,30.12,East,82,11.0,11.0,51,0.00,,,0.00,0,Wunderground v.1.15,2013-03-17 20:54:00,
2013-03-17 15:55:00,23.1,7.2,30.12,ENE,65,8.0,12.0,50,0.00,,,0.00,0,Wunderground v.1.15,2013-03-17 20:55:00,
2013-03-17 15:57:00,23.2,7.3,30.12,East,85,9.0,12.0,50,0.00,,,0.00,0,Wunderground v.1.15,2013-03-17 20:57:00,
2013-03-17 15:59:00,23.1,6.7,30.11,ESE,110,13.0,13.0,49,0.00,,,0.00,0,Wunderground v.1.15,2013-03-17 20:59:00,
2013-03-17 16:00:00,23.1,6.7,30.12,East,101,4.0,9.0,49,0.00,,,0.00,0,Wunderground v.1.15,2013-03-17 21:00:00,
2013-03-17 16:02:00,23.1,7.2,30.12,ENE,72,5.0,9.0,50,0.00,,,0.00,0,Wunderground v.1.15,2013-03-17 21:02:00,
2013-03-17 16:04:00,23.2,6.8,30.11,ESE,114,11.0,14.0,49,0.00,,,0.00,0,Wunderground v.1.15,2013-03-17 21:04:00,
2013-03-17 16:05:00,23.1,6.7,30.11,East,99,8.0,14.0,49,0.00,,,0.00,0,Wunderground v.1.15,2013-03-17 21:05:00,
2013-03-17 16:07:00,23.0,6.7,30.11,ESE,118,8.0,19.0,49,0.00,,,0.00,0,Wunderground v.1.15,2013-03-17 21:07:00,
2013-03-17 16:09:00,22.9,6.6,30.11,ESE,106,8.0,19.0,49,0.00,,,0.00,0,Wunderground v.1.15,2013-03-17 21:09:00,
2013-03-17 16:10:00,22.9,6.6,30.11,East,89,9.0,19.0,49,0.00,,,0.00,0,Wunderground v.1.15,2013-03-17 21:10:00,
2013-03-17 16:12:00,23.0,6.7,30.11,ESE,108,11.0,15.0,49,0.00,,,0.00,0,Wunderground v.1.15,2013-03-17 21:12:00,
2013-03-17 16:14:00,23.0,6.7,30.11,ENE,78,8.0,15.0,49,0.00,,,0.00,0,Wunderground v.1.15,2013-03-17 21:14:00,
2013-03-17 16:15:00,23.1,6.7,30.11,East,92,8.0,15.0,49,0.00,,,0.00,0,Wunderground v.1.15,2013-03-17 21:15:00,
2013-03-17 16:18:00,23.2,6.8,30.11,ESE,118,6.0,15.0,49,0.00,,,0.00,0,Wunderground v.1.15,2013-03-17 21:18:00,
2013-03-17 16:19:00,23.4,7.5,30.12,SE,129,10.0,15.0,50,0.00,,,0.00,0,Wunderground v.1.15,2013-03-17 21:19:00,
2013-03-17 16:20:00,23.4,7.5,30.12,ESE,123,10.0,12.0,50,0.00,,,0.00,0,Wunderground v.1.15,2013-03-17 21:20:00,
2013-03-17 16:23:00,23.4,7.0,30.11,East,87,6.0,14.0,49,0.00,,,0.00,0,Wunderground v.1.15,2013-03-17 21:23:00,
2013-03-17 16:25:00,23.5,7.6,30.11,East,101,8.0,14.0,50,0.00,,,0.00,0,Wunderground v.1.15,2013-03-17 21:25:00,
2013-03-17 16:29:00,23.8,7.4,30.11,ESE,109,9.0,14.0,49,0.00,,,0.00,0,Wunderground v.1.15,2013-03-17 21:29:00,
2013-03-17 16:30:00,23.8,7.4,30.11,SE,132,9.0,14.0,49,0.00,,,0.00,0,Wunderground v.1.15,2013-03-17 21:30:00,
2013-03-17 16:31:00,23.9,7.5,30.11,ESE,110,11.0,14.0,49,0.00,,,0.00,0,Wunderground v.1.15,2013-03-17 21:31:00,
2013-03-17 16:34:00,24.0,7.6,30.11,SE,134,13.0,15.0,49,0.00,,,0.00,0,Wunderground v.1.15,2013-03-17 21:34:00,
2013-03-17 16:35:00,24.1,7.7,30.11,SE,130,7.0,15.0,49,0.00,,,0.00,0,Wunderground v.1.15,2013-03-17 21:35:00,
2013-03-17 16:36:00,24.1,7.7,30.11,SSE,149,15.0,17.0,49,0.00,,,0.00,0,Wunderground v.1.15,2013-03-17 21:36:00,
2013-03-17 16:39:00,24.2,7.8,30.11,ESE,116,11.0,17.0,49,0.00,,,0.00,0,Wunderground v.1.15,2013-03-17 21:39:00,
2013-03-17 16:40:00,24.1,7.7,30.10,ESE,117,11.0,17.0,49,0.00,,,0.00,0,Wunderground v.1.15,2013-03-17 21:40:00,
2013-03-17 16:42:00,24.1,7.2,30.11,East,97,13.0,17.0,48,0.00,,,0.00,0,Wunderground v.1.15,2013-03-17 21:42:00,
2013-03-17 16:44:00,24.0,7.1,30.11,SE,125,8.0,18.0,48,0.00,,,0.00,0,Wunderground v.1.15,2013-03-17 21:44:00,
2013-03-17 16:45:00,24.0,7.1,30.11,SE,126,12.0,18.0,48,0.00,,,0.00,0,Wunderground v.1.15,2013-03-17 21:45:00,
2013-03-17 16:47:00,24.0,7.1,30.11,SE,141,14.0,18.0,48,0.00,,,0.00,0,Wunderground v.1.15,2013-03-17 21:47:00,
2013-03-17 16:49:00,23.9,7.0,30.10,East,89,7.0,18.0,48,0.00,,,0.00,0,Wunderground v.1.15,2013-03-17 21:49:00,
2013-03-17 16:50:00,23.9,7.0,30.11,East,88,5.0,7.0,48,0.00,,,0.00,0,Wunderground v.1.15,2013-03-17 21:50:00,
2013-03-17 16:52:00,24.1,7.2,30.11,East,91,12.0,12.0,48,0.00,,,0.00,0,Wunderground v.1.15,2013-03-17 21:52:00,
2013-03-17 16:54:00,24.1,7.2,30.11,ESE,106,11.0,12.0,48,0.00,,,0.00,0,Wunderground v.1.15,2013-03-17 21:54:00,
2013-03-17 16:55:00,24.1,7.2,30.11,ESE,111,6.0,14.0,48,0.00,,,0.00,0,Wunderground v.1.15,2013-03-17 21:55:00,
2013-03-17 16:56:00,24.1,7.2,30.11,ESE,115,12.0,14.0,48,0.00,,,0.00,0,Wunderground v.1.15,2013-03-17 21:56:00,
2013-03-17 16:58:00,24.1,7.2,30.11,ESE,123,10.0,14.0,48,0.00,,,0.00,0,Wunderground v.1.15,2013-03-17 21:58:00,
2013-03-17 16:59:00,24.1,7.2,30.11,SE,124,11.0,14.0,48,0.00,,,0.00,0,Wunderground v.1.15,2013-03-17 21:59:00,
2013-03-17 17:02:00,24.3,7.9,30.10,SE,135,7.0,13.0,49,0.00,,,0.00,0,Wunderground v.1.15,2013-03-17 22:02:00,
2013-03-17 17:03:00,24.3,7.9,30.10,SE,130,11.0,13.0,49,0.00,,,0.00,0,Wunderground v.1.15,2013-03-17 22:03:00,
2013-03-17 17:04:00,24.3,7.9,30.10,SE,145,4.0,13.0,49,0.00,,,0.00,0,Wunderground v.1.15,2013-03-17 22:04:00,
2013-03-17 17:07:00,24.5,8.0,30.11,SE,130,12.0,14.0,49,0.00,,,0.00,0,Wunderground v.1.15,2013-03-17 22:07:00,
2013-03-17 17:08:00,24.6,8.1,30.10,SE,130,12.0,16.0,49,0.00,,,0.00,0,Wunderground v.1.15,2013-03-17 22:08:00,
2013-03-17 17:10:00,24.4,7.5,30.11,ESE,107,9.0,16.0,48,0.00,,,0.00,0,Wunderground v.1.15,2013-03-17 22:10:00,
2013-03-17 17:12:00,24.4,7.9,30.10,ESE,120,9.0,14.0,49,0.00,,,0.00,0,Wunderground v.1.15,2013-03-17 22:12:00,
2013-03-17 17:13:00,24.4,7.5,30.10,ESE,102,7.0,14.0,48,0.00,,,0.00,0,Wunderground v.1.15,2013-03-17 22:13:00,
2013-03-17 17:15:00,24.4,7.9,30.10,SE,126,8.0,14.0,49,0.00,,,0.00,0,Wunderground v.1.15,2013-03-17 22:15:00,
2013-03-17 17:17:00,24.3,7.4,30.09,ESE,117,13.0,20.0,48,0.00,,,0.00,0,Wunderground v.1.15,2013-03-17 22:17:00,
2013-03-17 17:18:00,24.3,7.4,30.10,SE,129,15.0,20.0,48,0.00,,,0.00,0,Wunderground v.1.15,2013-03-17 22:18:00,
2013-03-17 17:19:00,24.2,7.3,30.10,ESE,117,12.0,20.0,48,0.00,,,0.00,0,Wunderground v.1.15,2013-03-17 22:19:00,
2013-03-17 17:20:00,24.2,7.3,30.09,ESE,121,11.0,11.0,48,0.00,,,0.00,0,Wunderground v.1.15,2013-03-17 22:20:00,
2013-03-17 17:22:00,24.2,7.3,30.09,SE,128,9.0,15.0,48,0.00,,,0.00,0,Wunderground v.1.15,2013-03-17 22:22:00,
2013-03-17 17:23:00,24.3,7.4,30.09,East,95,11.0,15.0,48,0.00,,,0.00,0,Wunderground v.1.15,2013-03-17 22:23:00,
2013-03-17 17:24:00,24.3,7.4,30.09,ESE,113,13.0,15.0,48,0.00,,,0.00,0,Wunderground v.1.15,2013-03-17 22:24:00,
2013-03-17 17:26:00,24.3,7.4,30.09,ENE,75,10.0,15.0,48,0.00,,,0.00,0,Wunderground v.1.15,2013-03-17 22:26:00,
2013-03-17 17:28:00,24.4,7.9,30.09,ESE,118,8.0,15.0,49,0.00,,,0.00,0,Wunderground v.1.15,2013-03-17 22:28:00,
2013-03-17 17:29:00,24.4,7.5,30.09,ESE,108,13.0,15.0,48,0.00,,,0.00,0,Wunderground v.1.15,2013-03-17 22:29:00,
2013-03-17 17:31:00,24.3,7.4,30.09,ESE,107,12.0,14.0,48,0.00,,,0.00,0,Wunderground v.1.15,2013-03-17 22:31:00,
2013-03-17 17:33:00,24.4,7.5,30.09,SE,124,20.0,20.0,48,0.00,,,0.00,0,Wunderground v.1.15,2013-03-17 22:33:00,
2013-03-17 17:34:00,24.3,7.4,30.09,ESE,110,11.0,20.0,48,0.00,,,0.00,0,Wunderground v.1.15,2013-03-17 22:34:00,
2013-03-17 17:36:00,24.3,7.4,30.09,ESE,121,10.0,20.0,48,0.00,,,0.00,0,Wunderground v.1.15,2013-03-17 22:36:00,
2013-03-17 17:38:00,24.4,7.5,30.09,ESE,109,7.0,20.0,48,0.00,,,0.00,0,Wunderground v.1.15,2013-03-17 22:38:00,
2013-03-17 17:39:00,24.4,7.5,30.09,ESE,117,5.0,20.0,48,0.00,,,0.00,0,Wunderground v.1.15,2013-03-17 22:39:00,
2013-03-17 17:41:00,24.4,7.5,30.10,ESE,122,10.0,14.0,48,0.00,,,0.00,0,Wunderground v.1.15,2013-03-17 22:41:00,
2013-03-17 17:43:00,24.4,7.9,30.09,ESE,116,6.0,15.0,49,0.00,,,0.00,0,Wunderground v.1.15,2013-03-17 22:43:00,
2013-03-17 17:44:00,24.5,7.6,30.08,ESE,122,8.0,15.0,48,0.00,,,0.00,0,Wunderground v.1.15,2013-03-17 22:44:00,
2013-03-17 17:46:00,24.5,7.6,30.09,ESE,106,9.0,17.0,48,0.00,,,0.00,0,Wunderground v.1.15,2013-03-17 22:46:00,
2013-03-17 17:48:00,24.5,7.6,30.09,SE,141,11.0,17.0,48,0.00,,,0.00,0,Wunderground v.1.15,2013-03-17 22:48:00,
2013-03-17 17:49:00,24.5,8.0,30.08,East,80,9.0,17.0,49,0.00,,,0.00,0,Wunderground v.1.15,2013-03-17 22:49:00,
2013-03-17 17:52:00,24.6,8.1,30.09,ESE,110,10.0,12.0,49,0.00,,,0.00,0,Wunderground v.1.15,2013-03-17 22:52:00,
2013-03-17 17:53:00,24.6,8.1,30.08,ESE,114,7.0,13.0,49,0.00,,,0.00,0,Wunderground v.1.15,2013-03-17 22:53:00,
2013-03-17 17:54:00,24.6,8.1,30.09,East,99,5.0,13.0,49,0.00,,,0.00,0,Wunderground v.1.15,2013-03-17 22:54:00,
2013-03-17 17:58:00,24.7,8.2,30.09,ESE,105,6.0,13.0,49,0.00,,,0.00,0,Wunderground v.1.15,2013-03-17 22:58:00,
2013-03-17 17:59:00,24.6,8.1,30.09,ESE,109,7.0,13.0,49,0.00,,,0.00,0,Wunderground v.1.15,2013-03-17 22:59:00,
2013-03-17 18:03:00,24.5,8.0,30.08,East,101,9.0,15.0,49,0.00,,,0.00,0,Wunderground v.1.15,2013-03-17 23:03:00,
2013-03-17 18:04:00,24.5,8.0,30.08,ESE,103,7.0,15.0,49,0.00,,,0.00,0,Wunderground v.1.15,2013-03-17 23:04:00,
2013-03-17 18:08:00,24.5,8.0,30.08,ESE,114,9.0,15.0,49,0.00,,,0.00,0,Wunderground v.1.15,2013-03-17 23:08:00,
2013-03-17 18:09:00,24.6,8.1,30.08,ESE,115,12.0,15.0,49,0.00,,,0.00,0,Wunderground v.1.15,2013-03-17 23:09:00,
2013-03-17 18:13:00,24.7,8.7,30.08,ESE,121,11.0,14.0,50,0.00,,,0.00,0,Wunderground v.1.15,2013-03-17 23:13:00,
2013-03-17 18:14:00,24.6,8.6,30.07,ESE,102,8.0,14.0,50,0.00,,,0.00,0,Wunderground v.1.15,2013-03-17 23:14:00,
2013-03-17 18:18:00,24.7,8.2,30.07,ESE,112,11.0,19.0,49,0.00,,,0.00,0,Wunderground v.1.15,2013-03-17 23:18:00,
2013-03-17 18:19:00,24.7,8.2,30.07,East,84,9.0,19.0,49,0.00,,,0.00,0,Wunderground v.1.15,2013-03-17 23:19:00,
2013-03-17 18:23:00,24.7,8.7,30.07,ESE,103,13.0,16.0,50,0.00,,,0.00,0,Wunderground v.1.15,2013-03-17 23:23:00,
2013-03-17 18:24:00,24.7,8.2,30.07,ESE,122,13.0,16.0,49,0.00,,,0.00,0,Wunderground v.1.15,2013-03-17 23:24:00,
2013-03-17 18:25:00,24.7,8.2,30.07,East,95,11.0,16.0,49,0.00,,,0.00,0,Wunderground v.1.15,2013-03-17 23:25:00,
2013-03-17 18:29:00,24.7,8.2,30.06,SE,134,12.0,17.0,49,0.00,,,0.00,0,Wunderground v.1.15,2013-03-17 23:29:00,
2013-03-17 18:30:00,24.7,8.7,30.06,ESE,111,8.0,17.0,50,0.00,,,0.00,0,Wunderground v.1.15,2013-03-17 23:30:00,
2013-03-17 18:34:00,24.8,8.8,30.06,SE,129,9.0,22.0,50,0.00,,,0.00,0,Wunderground v.1.15,2013-03-17 23:34:00,
2013-03-17 18:35:00,24.8,8.8,30.06,ESE,108,10.0,22.0,50,0.00,,,0.00,0,Wunderground v.1.15,2013-03-17 23:35:00,
2013-03-17 18:39:00,24.9,8.9,30.05,ENE,67,6.0,22.0,50,0.00,,,0.00,0,Wunderground v.1.15,2013-03-17 23:39:00,
2013-03-17 18:40:00,24.9,8.9,30.05,ESE,112,12.0,22.0,50,0.00,,,0.00,0,Wunderground v.1.15,2013-03-17 23:40:00,
2013-03-17 18:44:00,24.9,8.9,30.06,ESE,119,6.0,16.0,50,0.00,,,0.00,0,Wunderground v.1.15,2013-03-17 23:44:00,
2013-03-17 18:45:00,24.9,8.9,30.06,East,85,9.0,16.0,50,0.00,,,0.00,0,Wunderground v.1.15,2013-03-17 23:45:00,
2013-03-17 18:49:00,24.9,8.9,30.05,East,97,8.0,17.0,50,0.00,,,0.00,0,Wunderground v.1.15,2013-03-17 23:49:00,
2013-03-17 18:50:00,24.9,8.9,30.06,ESE,115,9.0,11.0,50,0.00,,,0.00,0,Wunderground v.1.15,2013-03-17 23:50:00,
2013-03-17 18:54:00,24.9,8.9,30.06,ESE,120,8.0,16.0,50,0.00,,,0.00,0,Wunderground v.1.15,2013-03-17 23:54:00,
2013-03-17 18:55:00,24.9,8.9,30.06,ESE,119,7.0,16.0,50,0.00,,,0.00,0,Wunderground v.1.15,2013-03-17 23:55:00,
2013-03-17 19:00:00,24.9,8.9,30.06,ESE,121,13.0,16.0,50,0.00,,,0.00,0,Wunderground v.1.15,2013-03-18 00:00:00,
2013-03-17 19:05:00,24.7,8.7,30.05,SE,129,7.0,16.0,50,0.00,,,0.00,0,Wunderground v.1.15,2013-03-18 00:05:00,
2013-03-17 19:10:00,24.7,9.1,30.06,SE,128,11.0,11.0,51,0.00,,,0.00,0,Wunderground v.1.15,2013-03-18 00:10:00,
2013-03-17 19:11:00,24.6,9.0,30.05,ESE,102,5.0,17.0,51,0.00,,,0.00,0,Wunderground v.1.15,2013-03-18 00:11:00,
2013-03-17 19:15:00,24.6,9.0,30.05,ESE,115,4.0,17.0,51,0.00,,,0.00,0,Wunderground v.1.15,2013-03-18 00:15:00,
2013-03-17 19:17:00,24.6,9.0,30.05,East,101,8.0,17.0,51,0.00,,,0.00,0,Wunderground v.1.15,2013-03-18 00:17:00,
2013-03-17 19:20:00,24.6,9.0,30.05,ESE,117,6.0,8.0,51,0.00,,,0.00,0,Wunderground v.1.15,2013-03-18 00:20:00,
2013-03-17 19:21:00,24.5,8.9,30.05,ESE,118,9.0,9.0,51,0.00,,,0.00,0,Wunderground v.1.15,2013-03-18 00:21:00,
2013-03-17 19:22:00,24.6,9.0,30.05,SE,130,8.0,10.0,51,0.00,,,0.00,0,Wunderground v.1.15,2013-03-18 00:22:00,
2013-03-17 19:25:00,24.6,9.5,30.05,ESE,115,9.0,10.0,52,0.00,,,0.00,0,Wunderground v.1.15,2013-03-18 00:25:00,
2013-03-17 19:26:00,24.6,9.5,30.04,ESE,122,12.0,12.0,52,0.00,,,0.00,0,Wunderground v.1.15,2013-03-18 00:26:00,
2013-03-17 19:28:00,24.6,9.5,30.04,ESE,116,9.0,12.0,52,0.00,,,0.00,0,Wunderground v.1.15,2013-03-18 00:28:00,
2013-03-17 19:30:00,24.6,9.5,30.05,ESE,116,9.0,9.0,52,0.00,,,0.00,0,Wunderground v.1.15,2013-03-18 00:30:00,
2013-03-17 19:31:00,24.6,9.5,30.05,ESE,117,8.0,14.0,52,0.00,,,0.00,0,Wunderground v.1.15,2013-03-18 00:31:00,
2013-03-17 19:33:00,24.6,9.5,30.05,ESE,105,12.0,14.0,52,0.00,,,0.00,0,Wunderground v.1.15,2013-03-18 00:33:00,
2013-03-17 19:35:00,24.6,9.5,30.05,ESE,106,6.0,14.0,52,0.00,,,0.00,0,Wunderground v.1.15,2013-03-18 00:35:00,
2013-03-17 19:36:00,24.6,9.5,30.04,ESE,107,7.0,14.0,52,0.00,,,0.00,0,Wunderground v.1.15,2013-03-18 00:36:00,
2013-03-17 19:37:00,24.6,9.5,30.04,ESE,107,5.0,14.0,52,0.00,,,0.00,0,Wunderground v.1.15,2013-03-18 00:37:00,
2013-03-17 19:38:00,24.7,9.5,30.05,ESE,107,6.0,14.0,52,0.00,,,0.00,0,Wunderground v.1.15,2013-03-18 00:38:00,
2013-03-17 19:40:00,24.6,9.5,30.04,ESE,112,12.0,13.0,52,0.00,,,0.00,0,Wunderground v.1.15,2013-03-18 00:40:00,
2013-03-17 19:42:00,24.7,9.5,30.04,ESE,108,6.0,13.0,52,0.00,,,0.00,0,Wunderground v.1.15,2013-03-18 00:42:00,
2013-03-17 19:43:00,24.7,9.5,30.04,ESE,119,7.0,13.0,52,0.00,,,0.00,0,Wunderground v.1.15,2013-03-18 00:43:00,
2013-03-17 19:46:00,24.7,9.5,30.04,ESE,103,6.0,13.0,52,0.00,,,0.00,0,Wunderground v.1.15,2013-03-18 00:46:00,
2013-03-17 19:47:00,24.8,9.6,30.04,East,101,7.0,13.0,52,0.00,,,0.00,0,Wunderground v.1.15,2013-03-18 00:47:00,
2013-03-17 19:49:00,24.8,9.6,30.03,SE,126,7.0,15.0,52,0.00,,,0.00,0,Wunderground v.1.15,2013-03-18 00:49:00,
2013-03-17 19:51:00,24.8,9.6,30.04,East,89,6.0,8.0,52,0.00,,,0.00,0,Wunderground v.1.15,2013-03-18 00:51:00,
2013-03-17 19:52:00,24.8,9.6,30.03,East,90,7.0,8.0,52,0.00,,,0.00,0,Wunderground v.1.15,2013-03-18 00:52:00,
2013-03-17 19:54:00,24.8,9.6,30.04,SE,135,6.0,14.0,52,0.00,,,0.00,0,Wunderground v.1.15,2013-03-18 00:54:00,
2013-03-17 19:56:00,24.9,9.7,30.04,ESE,116,13.0,17.0,52,0.00,,,0.00,0,Wunderground v.1.15,2013-03-18 00:56:00,
2013-03-17 19:57:00,24.8,9.6,30.04,SE,127,7.0,17.0,52,0.00,,,0.00,0,Wunderground v.1.15,2013-03-18 00:57:00,
2013-03-17 19:59:00,24.9,9.7,30.03,ESE,121,8.0,17.0,52,0.00,,,0.00,0,Wunderground v.1.15,2013-03-18 00:59:00,
2013-03-17 20:02:00,24.9,9.7,30.04,East,100,5.0,14.0,52,0.00,,,0.00,0,Wunderground v.1.15,2013-03-18 01:02:00,
2013-03-17 20:04:00,24.9,9.7,30.03,ESE,110,4.0,14.0,52,0.00,,,0.00,0,Wunderground v.1.15,2013-03-18 01:04:00,
2013-03-17 20:07:00,24.9,9.7,30.03,ESE,115,7.0,14.0,52,0.00,,,0.00,0,Wunderground v.1.15,2013-03-18 01:07:00,
2013-03-17 20:09:00,24.9,10.2,30.03,ESE,119,4.0,14.0,53,0.00,,,0.00,0,Wunderground v.1.15,2013-03-18 01:09:00,
2013-03-17 20:12:00,24.8,10.1,30.02,SE,126,4.0,9.0,53,0.00,,,0.00,0,Wunderground v.1.15,2013-03-18 01:12:00,
2013-03-17 20:13:00,24.9,10.2,30.02,SE,125,6.0,9.0,53,0.00,,,0.00,0,Wunderground v.1.15,2013-03-18 01:13:00,
2013-03-17 20:15:00,24.8,10.1,30.02,ESE,116,6.0,9.0,53,0.00,,,0.00,0,Wunderground v.1.15,2013-03-18 01:15:00,
2013-03-17 20:17:00,24.9,10.2,30.02,ESE,117,10.0,10.0,53,0.00,,,0.00,0,Wunderground v.1.15,2013-03-18 01:17:00,
2013-03-17 20:18:00,24.8,10.1,30.02,ESE,103,8.0,10.0,53,0.00,,,0.00,0,Wunderground v.1.15,2013-03-18 01:18:00,
2013-03-17 20:20:00,24.8,10.1,30.02,East,100,7.0,9.0,53,0.00,,,0.00,0,Wunderground v.1.15,2013-03-18 01:20:00,
2013-03-17 20:22:00,24.8,10.1,30.01,SE,125,7.0,15.0,53,0.00,,,0.00,0,Wunderground v.1.15,2013-03-18 01:22:00,
2013-03-17 20:23:00,24.8,10.1,30.01,ESE,114,6.0,15.0,53,0.00,,,0.00,0,Wunderground v.1.15,2013-03-18 01:23:00,
2013-03-17 20:25:00,24.8,10.1,30.01,East,98,10.0,16.0,53,0.00,,,0.00,0,Wunderground v.1.15,2013-03-18 01:25:00,
2013-03-17 20:27:00,24.8,10.1,30.01,East,89,8.0,20.0,53,0.00,,,0.00,0,Wunderground v.1.15,2013-03-18 01:27:00,
2013-03-17 20:28:00,24.8,10.1,30.01,ESE,117,13.0,20.0,53,0.00,,,0.00,0,Wunderground v.1.15,2013-03-18 01:28:00,
2013-03-17 20:30:00,24.8,10.1,30.01,ESE,112,7.0,11.0,53,0.00,,,0.00,0,Wunderground v.1.15,2013-03-18 01:30:00,
2013-03-17 20:32:00,24.8,10.5,30.01,ESE,117,5.0,11.0,54,0.00,,,0.00,0,Wunderground v.1.15,2013-03-18 01:32:00,
2013-03-17 20:33:00,24.8,10.5,30.01,ESE,104,9.0,11.0,54,0.00,,,0.00,0,Wunderground v.1.15,2013-03-18 01:33:00,
2013-03-17 20:35:00,24.8,10.5,30.01,East,98,7.0,13.0,54,0.00,,,0.00,0,Wunderground v.1.15,2013-03-18 01:35:00,
2013-03-17 20:37:00,24.8,10.5,30.00,East,79,9.0,16.0,54,0.00,,,0.00,0,Wunderground v.1.15,2013-03-18 01:37:00,
2013-03-17 20:38:00,24.8,10.1,30.00,East,87,7.0,16.0,53,0.00,,,0.00,0,Wunderground v.1.15,2013-03-18 01:38:00,
2013-03-17 20:39:00,24.8,10.1,30.01,East,99,7.0,16.0,53,0.00,,,0.00,0,Wunderground v.1.15,2013-03-18 01:39:00,
2013-03-17 20:40:00,24.8,10.5,30.01,ESE,104,6.0,8.0,54,0.00,,,0.00,0,Wunderground v.1.15,2013-03-18 01:40:00,
2013-03-17 20:43:00,24.8,10.5,30.01,ESE,104,5.0,9.0,54,0.00,,,0.00,0,Wunderground v.1.15,2013-03-18 01:43:00,
2013-03-17 20:44:00,24.8,10.5,30.01,ESE,107,8.0,9.0,54,0.00,,,0.00,0,Wunderground v.1.15,2013-03-18 01:44:00,
2013-03-17 20:45:00,24.8,10.5,30.01,ESE,115,8.0,10.0,54,0.00,,,0.00,0,Wunderground v.1.15,2013-03-18 01:45:00,
2013-03-17 20:48:00,24.8,10.9,30.01,ESE,104,4.0,10.0,55,0.00,,,0.00,0,Wunderground v.1.15,2013-03-18 01:48:00,
2013-03-17 20:49:00,24.7,10.4,30.01,ESE,107,6.0,10.0,54,0.00,,,0.00,0,Wunderground v.1.15,2013-03-18 01:49:00,
2013-03-17 20:50:00,24.7,10.8,30.01,ESE,108,9.0,10.0,55,0.00,,,0.00,0,Wunderground v.1.15,2013-03-18 01:50:00,
2013-03-17 20:53:00,24.8,10.5,30.01,ESE,118,6.0,11.0,54,0.00,,,0.00,0,Wunderground v.1.15,2013-03-18 01:53:00,
2013-03-17 20:54:00,24.8,10.9,30.01,ESE,111,8.0,11.0,55,0.00,,,0.00,0,Wunderground v.1.15,2013-03-18 01:54:00,
2013-03-17 20:55:00,24.7,10.8,30.01,East,100,6.0,11.0,55,0.00,,,0.00,0,Wunderground v.1.15,2013-03-18 01:55:00,
2013-03-17 20:58:00,24.8,10.9,30.01,ESE,120,8.0,12.0,55,0.00,,,0.00,0,Wunderground v.1.15,2013-03-18 01:58:00,
2013-03-17 20:59:00,24.8,10.9,30.02,SE,124,4.0,12.0,55,0.00,,,0.00,0,Wunderground v.1.15,2013-03-18 01:59:00,
2013-03-17 21:00:00,24.8,10.9,30.01,ESE,123,5.0,8.0,55,0.00,,,0.00,0,Wunderground v.1.15,2013-03-18 02:00:00,
2013-03-17 21:03:00,24.8,10.9,30.01,SE,126,6.0,14.0,55,0.00,,,0.00,0,Wunderground v.1.15,2013-03-18 02:03:00,
2013-03-17 21:04:00,24.8,10.5,30.01,ESE,118,5.0,14.0,54,0.00,,,0.00,0,Wunderground v.1.15,2013-03-18 02:04:00,
2013-03-17 21:06:00,24.8,10.9,30.01,ESE,116,6.0,14.0,55,0.00,,,0.00,0,Wunderground v.1.15,2013-03-18 02:06:00,
2013-03-17 21:08:00,24.9,11.0,30.01,SE,135,5.0,14.0,55,0.00,,,0.00,0,Wunderground v.1.15,2013-03-18 02:08:00,
2013-03-17 21:09:00,24.9,11.0,30.01,SE,135,10.0,14.0,55,0.00,,,0.00,0,Wunderground v.1.15,2013-03-18 02:09:00,
2013-03-17 21:10:00,24.8,10.9,30.01,SE,134,4.0,6.0,55,0.00,,,0.00,0,Wunderground v.1.15,2013-03-18 02:10:00,
2013-03-17 21:11:00,24.8,10.9,30.01,SE,136,7.0,9.0,55,0.00,,,0.00,0,Wunderground v.1.15,2013-03-18 02:11:00,
2013-03-17 21:13:00,24.8,10.9,30.01,East,80,6.0,9.0,55,0.00,,,0.00,0,Wunderground v.1.15,2013-03-18 02:13:00,
2013-03-17 21:14:00,24.8,10.9,30.01,ENE,75,6.0,9.0,55,0.00,,,0.00,0,Wunderground v.1.15,2013-03-18 02:14:00,
2013-03-17 21:15:00,24.8,10.9,30.01,ENE,76,5.0,9.0,55,0.00,,,0.00,0,Wunderground v.1.15,2013-03-18 02:15:00,
2013-03-17 21:16:00,24.8,10.9,30.01,ESE,112,5.0,10.0,55,0.00,,,0.00,0,Wunderground v.1.15,2013-03-18 02:16:00,
2013-03-17 21:18:00,24.8,10.9,30.01,ESE,108,4.0,10.0,55,0.00,,,0.00,0,Wunderground v.1.15,2013-03-18 02:18:00,
2013-03-17 21:19:00,24.8,10.9,30.01,SE,126,7.0,11.0,55,0.00,,,0.00,0,Wunderground v.1.15,2013-03-18 02:19:00,
2013-03-17 21:20:00,24.8,10.9,30.01,SE,126,4.0,5.0,55,0.00,,,0.00,0,Wunderground v.1.15,2013-03-18 02:20:00,
2013-03-17 21:22:00,24.8,10.9,30.01,SE,126,5.0,7.0,55,0.00,,,0.00,0,Wunderground v.1.15,2013-03-18 02:22:00,
2013-03-17 21:24:00,24.8,10.9,30.02,East,89,8.0,8.0,55,0.00,,,0.00,0,Wunderground v.1.15,2013-03-18 02:24:00,
2013-03-17 21:25:00,24.7,10.8,30.01,East,96,3.0,8.0,55,0.00,,,0.00,0,Wunderground v.1.15,2013-03-18 02:25:00,
2013-03-17 21:27:00,24.7,10.8,30.01,ESE,107,5.0,9.0,55,0.00,,,0.00,0,Wunderground v.1.15,2013-03-18 02:27:00,
2013-03-17 21:29:00,24.7,10.8,30.02,ESE,108,6.0,9.0,55,0.00,,,0.00,0,Wunderground v.1.15,2013-03-18 02:29:00,
2013-03-17 21:30:00,24.7,10.8,30.01,ESE,108,7.0,7.0,55,0.00,,,0.00,0,Wunderground v.1.15,2013-03-18 02:30:00,
2013-03-17 21:32:00,24.7,10.8,30.01,ESE,109,7.0,9.0,55,0.00,,,0.00,0,Wunderground v.1.15,2013-03-18 02:32:00,
2013-03-17 21:34:00,24.7,10.8,30.01,ESE,107,6.0,10.0,55,0.00,,,0.00,0,Wunderground v.1.15,2013-03-18 02:34:00,
2013-03-17 21:35:00,24.7,10.8,30.01,ESE,107,7.0,10.0,55,0.00,,,0.00,0,Wunderground v.1.15,2013-03-18 02:35:00,
2013-03-17 21:37:00,24.6,11.1,30.01,ESE,111,5.0,10.0,56,0.00,,,0.00,0,Wunderground v.1.15,2013-03-18 02:37:00,
2013-03-17 21:39:00,24.6,11.1,30.01,ESE,111,4.0,10.0,56,0.00,,,0.00,0,Wunderground v.1.15,2013-03-18 02:39:00,
2013-03-17 21:40:00,24.6,10.7,30.01,ESE,111,6.0,6.0,55,0.00,,,0.00,0,Wunderground v.1.15,2013-03-18 02:40:00,
2013-03-17 21:42:00,24.6,11.1,30.01,ESE,111,4.0,6.0,56,0.00,,,0.00,0,Wunderground v.1.15,2013-03-18 02:42:00,
2013-03-17 21:44:00,24.5,11.0,30.01,ESE,112,4.0,8.0,56,0.00,,,0.00,0,Wunderground v.1.15,2013-03-18 02:44:00,
2013-03-17 21:45:00,24.6,11.1,30.01,ESE,112,2.0,8.0,56,0.00,,,0.00,0,Wunderground v.1.15,2013-03-18 02:45:00,
2013-03-17 21:47:00,24.6,11.1,30.01,ESE,112,5.0,8.0,56,0.00,,,0.00,0,Wunderground v.1.15,2013-03-18 02:47:00,
2013-03-17 21:50:00,24.6,11.1,30.01,ESE,112,6.0,8.0,56,0.00,,,0.00,0,Wunderground v.1.15,2013-03-18 02:50:00,
2013-03-17 21:52:00,24.5,11.0,30.01,ESE,112,7.0,8.0,56,0.00,,,0.00,0,Wunderground v.1.15,2013-03-18 02:52:00,
2013-03-17 21:55:00,24.6,11.5,30.01,ESE,112,4.0,8.0,57,0.00,,,0.00,0,Wunderground v.1.15,2013-03-18 02:55:00,
2013-03-17 21:58:00,24.6,11.5,30.01,SE,126,12.0,12.0,57,0.00,,,0.00,0,Wunderground v.1.15,2013-03-18 02:58:00,
2013-03-17 22:00:00,24.7,12.0,30.01,SSE,149,6.0,9.0,58,0.00,,,0.00,0,Wunderground v.1.15,2013-03-18 03:00:00,
2013-03-17 22:03:00,24.8,12.1,30.01,ESE,113,4.0,11.0,58,0.00,,,0.00,0,Wunderground v.1.15,2013-03-18 03:03:00,
2013-03-17 22:05:00,24.9,12.2,30.01,SE,139,8.0,11.0,58,0.00,,,0.00,0,Wunderground v.1.15,2013-03-18 03:05:00,
2013-03-17 22:08:00,25.0,12.7,30.00,SE,127,9.0,14.0,59,0.00,,,0.00,0,Wunderground v.1.15,2013-03-18 03:08:00,
2013-03-17 22:10:00,25.0,12.7,30.00,SSE,150,10.0,16.0,59,0.00,,,0.00,0,Wunderground v.1.15,2013-03-18 03:10:00,
2013-03-17 22:11:00,25.0,12.7,30.00,SSE,153,7.0,16.0,59,0.00,,,0.00,0,Wunderground v.1.15,2013-03-18 03:11:00,
2013-03-17 22:13:00,25.1,12.8,30.00,SSE,148,13.0,18.0,59,0.00,,,0.00,0,Wunderground v.1.15,2013-03-18 03:13:00,
2013-03-17 22:15:00,25.1,13.2,30.01,SE,143,7.0,18.0,60,0.00,,,0.00,0,Wunderground v.1.15,2013-03-18 03:15:00,
2013-03-17 22:16:00,25.1,13.2,30.01,SE,142,6.0,18.0,60,0.00,,,0.00,0,Wunderground v.1.15,2013-03-18 03:16:00,
2013-03-17 22:17:00,25.1,13.2,30.01,SE,139,5.0,18.0,60,0.00,,,0.00,0,Wunderground v.1.15,2013-03-18 03:17:00,
2013-03-17 22:19:00,25.1,13.2,30.00,SSE,152,7.0,18.0,60,0.00,,,0.00,0,Wunderground v.1.15,2013-03-18 03:19:00,
2013-03-17 22:20:00,25.0,13.1,30.00,SE,127,7.0,12.0,60,0.00,,,0.00,0,Wunderground v.1.15,2013-03-18 03:20:00,
2013-03-17 22:21:00,25.1,13.2,30.00,SE,129,7.0,12.0,60,0.00,,,0.00,0,Wunderground v.1.15,2013-03-18 03:21:00,
2013-03-17 22:22:00,25.1,13.5,30.00,SE,143,12.0,18.0,61,0.00,,,0.00,0,Wunderground v.1.15,2013-03-18 03:22:00,
2013-03-17 22:24:00,25.1,13.5,30.01,SE,143,11.0,18.0,61,0.00,,,0.00,0,Wunderground v.1.15,2013-03-18 03:24:00,
2013-03-17 22:26:00,25.1,13.9,30.00,ESE,122,16.0,23.0,62,0.00,,,0.00,0,Wunderground v.1.15,2013-03-18 03:26:00,
2013-03-17 22:27:00,25.1,13.9,30.00,SSE,147,14.0,24.0,62,0.00,,,0.00,0,Wunderground v.1.15,2013-03-18 03:27:00,
2013-03-17 22:29:00,25.2,14.4,30.00,SSE,148,19.0,24.0,63,0.00,,,0.00,0,Wunderground v.1.15,2013-03-18 03:29:00,
2013-03-17 22:32:00,25.2,14.4,30.00,SSE,163,8.0,15.0,63,0.00,,,0.00,0,Wunderground v.1.15,2013-03-18 03:32:00,
2013-03-17 22:34:00,25.2,14.4,30.01,SSE,155,11.0,19.0,63,0.00,,,0.00,0,Wunderground v.1.15,2013-03-18 03:34:00,
2013-03-17 22:37:00,25.3,14.5,30.00,SSE,150,11.0,23.0,63,0.00,,,0.00,0,Wunderground v.1.15,2013-03-18 03:37:00,
2013-03-17 22:38:00,25.3,14.5,30.00,SE,145,12.0,23.0,63,0.00,,,0.00,0,Wunderground v.1.15,2013-03-18 03:38:00,
2013-03-17 22:39:00,25.3,14.5,30.00,ESE,121,15.0,23.0,63,0.00,,,0.00,0,Wunderground v.1.15,2013-03-18 03:39:00,
2013-03-17 22:42:00,25.3,14.5,30.00,SE,127,11.0,20.0,63,0.00,,,0.00,0,Wunderground v.1.15,2013-03-18 03:42:00,
2013-03-17 22:43:00,25.4,14.5,30.00,SE,140,11.0,20.0,63,0.00,,,0.00,0,Wunderground v.1.15,2013-03-18 03:43:00,
2013-03-17 22:44:00,25.4,14.9,30.00,SSE,150,10.0,20.0,64,0.00,,,0.00,0,Wunderground v.1.15,2013-03-18 03:44:00,
2013-03-17 22:47:00,25.4,14.9,30.00,SE,125,16.0,21.0,64,0.00,,,0.00,0,Wunderground v.1.15,2013-03-18 03:47:00,
2013-03-17 22:48:00,25.4,14.9,30.00,SE,132,10.0,21.0,64,0.00,,,0.00,0,Wunderground v.1.15,2013-03-18 03:48:00,
2013-03-17 22:49:00,25.4,14.9,30.00,SSE,159,13.0,23.0,64,0.00,,,0.00,0,Wunderground v.1.15,2013-03-18 03:49:00,
2013-03-17 22:52:00,25.4,14.9,29.99,SE,129,10.0,20.0,64,0.00,,,0.00,0,Wunderground v.1.15,2013-03-18 03:52:00,
2013-03-17 22:53:00,25.5,15.0,29.99,ESE,123,13.0,20.0,64,0.00,,,0.00,0,Wunderground v.1.15,2013-03-18 03:53:00,
2013-03-17 22:54:00,25.4,14.9,29.99,SE,135,9.0,22.0,64,0.00,,,0.00,0,Wunderground v.1.15,2013-03-18 03:54:00,
2013-03-17 22:57:00,25.4,14.9,29.99,SSE,148,13.0,24.0,64,0.00,,,0.00,0,Wunderground v.1.15,2013-03-18 03:57:00,
2013-03-17 22:58:00,25.4,14.9,29.99,SSE,150,12.0,24.0,64,0.00,,,0.00,0,Wunderground v.1.15,2013-03-18 03:58:00,
2013-03-17 22:59:00,25.4,15.3,29.99,SE,144,15.0,24.0,65,0.00,,,0.00,0,Wunderground v.1.15,2013-03-18 03:59:00,
2013-03-17 23:00:00,25.4,15.3,29.99,SE,144,14.0,14.0,65,0.00,,,0.00,0,Wunderground v.1.15,2013-03-18 04:00:00,
2013-03-17 23:05:00,25.4,15.3,29.99,SE,144,8.0,17.0,65,0.00,,,0.00,0,Wunderground v.1.15,2013-03-18 04:05:00,
2013-03-17 23:10:00,25.4,15.3,29.99,SE,129,10.0,13.0,65,0.00,,,0.00,0,Wunderground v.1.15,2013-03-18 04:10:00,
2013-03-17 23:15:00,25.5,15.4,30.00,SE,142,13.0,21.0,65,0.00,,,0.00,0,Wunderground v.1.15,2013-03-18 04:15:00,
2013-03-17 23:16:00,25.5,15.4,29.99,SE,132,10.0,21.0,65,0.00,,,0.00,0,Wunderground v.1.15,2013-03-18 04:16:00,
2013-03-17 23:20:00,25.6,15.8,29.99,SE,141,13.0,13.0,66,0.00,,,0.00,0,Wunderground v.1.15,2013-03-18 04:20:00,
2013-03-17 23:21:00,25.6,15.8,30.00,SSE,154,9.0,13.0,66,0.00,,,0.00,0,Wunderground v.1.15,2013-03-18 04:21:00,
2013-03-17 23:25:00,25.6,15.8,30.00,SE,139,10.0,14.0,66,0.00,,,0.00,0,Wunderground v.1.15,2013-03-18 04:25:00,
2013-03-17 23:26:00,25.6,15.8,30.00,SE,142,8.0,14.0,66,0.00,,,0.00,0,Wunderground v.1.15,2013-03-18 04:26:00,
2013-03-17 23:27:00,25.6,15.8,29.99,SE,144,13.0,14.0,66,0.00,,,0.00,0,Wunderground v.1.15,2013-03-18 04:27:00,
2013-03-17 23:30:00,25.7,15.9,30.00,SE,144,8.0,12.0,66,0.00,,,0.00,0,Wunderground v.1.15,2013-03-18 04:30:00,
2013-03-17 23:32:00,25.6,15.8,29.99,SE,146,4.0,12.0,66,0.00,,,0.00,0,Wunderground v.1.15,2013-03-18 04:32:00,
2013-03-17 23:33:00,25.6,15.8,29.99,SE,146,6.0,12.0,66,0.00,,,0.00,0,Wunderground v.1.15,2013-03-18 04:33:00,
2013-03-17 23:35:00,25.6,15.8,29.98,ESE,117,7.0,15.0,66,0.00,,,0.00,0,Wunderground v.1.15,2013-03-18 04:35:00,
2013-03-17 23:36:00,25.6,15.8,29.99,ESE,120,12.0,15.0,66,0.00,,,0.00,0,Wunderground v.1.15,2013-03-18 04:36:00,
2013-03-17 23:37:00,25.7,15.9,29.99,SE,142,22.0,22.0,66,0.00,,,0.00,0,Wunderground v.1.15,2013-03-18 04:37:00,
2013-03-17 23:38:00,25.7,15.9,29.98,SE,139,7.0,22.0,66,0.00,,,0.00,0,Wunderground v.1.15,2013-03-18 04:38:00,
2013-03-17 23:40:00,25.7,15.9,29.98,SE,140,7.0,10.0,66,0.00,,,0.00,0,Wunderground v.1.15,2013-03-18 04:40:00,
2013-03-17 23:41:00,25.8,16.0,29.99,SE,141,10.0,12.0,66,0.00,,,0.00,0,Wunderground v.1.15,2013-03-18 04:41:00,
2013-03-17 23:42:00,25.8,16.3,29.98,SE,138,12.0,18.0,67,0.00,,,0.00,0,Wunderground v.1.15,2013-03-18 04:42:00,
2013-03-17 23:43:00,25.8,16.0,29.98,SE,140,10.0,18.0,66,0.00,,,0.00,0,Wunderground v.1.15,2013-03-18 04:43:00,
2013-03-17 23:45:00,25.8,16.0,29.98,SSE,154,12.0,22.0,66,0.00,,,0.00,0,Wunderground v.1.15,2013-03-18 04:45:00,
2013-03-17 23:46:00,25.8,16.0,29.98,SE,144,10.0,22.0,66,0.00,,,0.00,0,Wunderground v.1.15,2013-03-18 04:46:00,
2013-03-17 23:47:00,25.9,16.1,29.98,SE,130,10.0,22.0,66,0.00,,,0.00,0,Wunderground v.1.15,2013-03-18 04:47:00,
2013-03-17 23:49:00,25.8,16.3,29.98,SSE,158,12.0,22.0,67,0.00,,,0.00,0,Wunderground v.1.15,2013-03-18 04:49:00,
2013-03-17 23:51:00,25.9,16.4,29.98,SE,145,20.0,25.0,67,0.00,,,0.00,0,Wunderground v.1.15,2013-03-18 04:51:00,
2013-03-17 23:52:00,25.9,16.4,29.97,SSE,149,17.0,25.0,67,0.00,,,0.00,0,Wunderground v.1.15,2013-03-18 04:52:00,
2013-03-17 23:54:00,25.9,16.4,29.97,ESE,119,11.0,25.0,67,0.00,,,0.00,0,Wunderground v.1.15,2013-03-18 04:54:00,
2013-03-17 23:56:00,25.9,16.4,29.97,ESE,123,9.0,25.0,67,0.00,,,0.00,0,Wunderground v.1.15,2013-03-18 04:56:00,
2013-03-17 23:57:00,25.9,16.4,29.97,SSE,150,11.0,25.0,67,0.00,,,0.00,0,Wunderground v.1.15,2013-03-18 04:57:00,
2013-03-17 23:58:00,25.9,16.4,29.97,SSE,148,8.0,25.0,67,0.00,,,0.00,0,Wunderground v.1.15,2013-03-18 04:58:00,
2013-03-17 23:59:00,25.9,16.4,29.96,SE,137,9.0,25.0,67,0.00,,,0.00,0,Wunderground v.1.15,2013-03-18 04:59:00,